Time,TemperatureF,DewpointF,PressureIn,WindDirection,WindDirectionDegrees,WindSpeedMPH,WindSpeedGustMPH,Humidity,HourlyPrecipIn,Conditions,Clouds,dailyrainin,SoftwareType,DateUTC
2013-05-01 00:01:00,55.1,25.7,30.21,SW,232,1.0,8.0,32,0.00,,,0.00,Wunderground v.1.15,2013-05-01 04:01:00,
2013-05-01 00:03:00,55.0,25.6,30.21,SW,232,1.0,8.0,32,0.00,,,0.00,Wunderground v.1.15,2013-05-01 04:03:00,
2013-05-01 00:05:00,54.9,25.6,30.21,SW,230,1.0,8.0,32,0.00,,,0.00,Wunderground v.1.15,2013-05-01 04:05:00,
2013-05-01 00:06:00,54.9,25.6,30.21,SW,230,1.0,8.0,32,0.00,,,0.00,Wunderground v.1.15,2013-05-01 04:06:00,
2013-05-01 00:07:00,54.9,25.6,30.21,SW,230,1.0,8.0,32,0.00,,,0.00,Wunderground v.1.15,2013-05-01 04:07:00,
2013-05-01 00:11:00,54.8,25.5,30.20,SW,226,1.0,8.0,32,0.00,,,0.00,Wunderground v.1.15,2013-05-01 04:11:00,
2013-05-01 00:12:00,54.8,25.5,30.20,SW,226,1.0,8.0,32,0.00,,,0.00,Wunderground v.1.15,2013-05-01 04:12:00,
2013-05-01 00:13:00,54.8,26.2,30.20,SW,226,1.0,8.0,33,0.00,,,0.00,Wunderground v.1.15,2013-05-01 04:13:00,
2013-05-01 00:17:00,54.7,26.1,30.21,SW,226,1.0,8.0,33,0.00,,,0.00,Wunderground v.1.15,2013-05-01 04:17:00,
2013-05-01 00:18:00,54.6,26.0,30.20,SW,226,1.0,8.0,33,0.00,,,0.00,Wunderground v.1.15,2013-05-01 04:18:00,
2013-05-01 00:19:00,54.6,26.0,30.20,SW,226,1.0,8.0,33,0.00,,,0.00,Wunderground v.1.15,2013-05-01 04:19:00,
2013-05-01 00:24:00,54.5,26.0,30.20,SW,226,0.0,8.0,33,0.00,,,0.00,Wunderground v.1.15,2013-05-01 04:24:00,
2013-05-01 00:25:00,54.4,26.6,30.20,SW,226,0.0,8.0,34,0.00,,,0.00,Wunderground v.1.15,2013-05-01 04:25:00,
2013-05-01 00:26:00,54.4,25.9,30.21,SW,226,0.0,8.0,33,0.00,,,0.00,Wunderground v.1.15,2013-05-01 04:26:00,
2013-05-01 00:28:00,54.4,25.9,30.21,SW,226,0.0,8.0,33,0.00,,,0.00,Wunderground v.1.15,2013-05-01 04:28:00,
2013-05-01 00:30:00,54.3,26.5,30.21,SW,226,0.0,8.0,34,0.00,,,0.00,Wunderground v.1.15,2013-05-01 04:30:00,
2013-05-01 00:32:00,54.2,26.4,30.21,SW,226,0.0,8.0,34,0.00,,,0.00,Wunderground v.1.15,2013-05-01 04:32:00,
2013-05-01 00:33:00,54.2,26.4,30.21,SW,226,0.0,8.0,34,0.00,,,0.00,Wunderground v.1.15,2013-05-01 04:33:00,
2013-05-01 00:34:00,54.2,26.4,30.21,SW,226,0.0,8.0,34,0.00,,,0.00,Wunderground v.1.15,2013-05-01 04:34:00,
2013-05-01 00:38:00,54.1,26.3,30.21,SW,226,0.0,8.0,34,0.00,,,0.00,Wunderground v.1.15,2013-05-01 04:38:00,
2013-05-01 00:41:00,54.0,26.2,30.21,SW,226,0.0,8.0,34,0.00,,,0.00,Wunderground v.1.15,2013-05-01 04:41:00,
2013-05-01 00:43:00,53.9,26.1,30.21,SW,226,0.0,8.0,34,0.00,,,0.00,Wunderground v.1.15,2013-05-01 04:43:00,
2013-05-01 00:44:00,53.9,26.1,30.21,SW,226,1.0,8.0,34,0.00,,,0.00,Wunderground v.1.15,2013-05-01 04:44:00,
2013-05-01 00:45:00,53.9,26.1,30.21,SW,226,0.0,8.0,34,0.00,,,0.00,Wunderground v.1.15,2013-05-01 04:45:00,
2013-05-01 00:46:00,53.9,26.1,30.21,SW,226,0.0,8.0,34,0.00,,,0.00,Wunderground v.1.15,2013-05-01 04:46:00,
2013-05-01 00:49:00,53.8,26.1,30.21,SW,226,1.0,8.0,34,0.00,,,0.00,Wunderground v.1.15,2013-05-01 04:49:00,
2013-05-01 00:52:00,53.8,26.8,30.21,SW,226,0.0,8.0,35,0.00,,,0.00,Wunderground v.1.15,2013-05-01 04:52:00,
2013-05-01 00:56:00,53.6,27.3,30.21,SW,226,0.0,8.0,36,0.00,,,0.00,Wunderground v.1.15,2013-05-01 04:56:00,
2013-05-01 00:57:00,53.6,26.6,30.21,SW,226,0.0,8.0,35,0.00,,,0.00,Wunderground v.1.15,2013-05-01 04:57:00,
2013-05-01 00:58:00,53.5,26.5,30.22,SW,226,0.0,8.0,35,0.00,,,0.00,Wunderground v.1.15,2013-05-01 04:58:00,
2013-05-01 01:01:00,53.4,27.1,30.22,SW,226,0.0,3.0,36,0.00,,,0.00,Wunderground v.1.15,2013-05-01 05:01:00,
2013-05-01 01:05:00,53.2,26.9,30.22,SW,226,0.0,3.0,36,0.00,,,0.00,Wunderground v.1.15,2013-05-01 05:05:00,
2013-05-01 01:10:00,52.9,27.3,30.22,SW,226,0.0,3.0,37,0.00,,,0.00,Wunderground v.1.15,2013-05-01 05:10:00,
2013-05-01 01:11:00,52.9,26.6,30.22,SW,226,0.0,3.0,36,0.00,,,0.00,Wunderground v.1.15,2013-05-01 05:11:00,
2013-05-01 01:15:00,52.7,27.1,30.22,SW,226,0.0,3.0,37,0.00,,,0.00,Wunderground v.1.15,2013-05-01 05:15:00,
2013-05-01 01:16:00,52.7,27.1,30.22,SW,226,0.0,3.0,37,0.00,,,0.00,Wunderground v.1.15,2013-05-01 05:16:00,
2013-05-01 01:22:00,52.5,27.6,30.22,SW,226,0.0,3.0,38,0.00,,,0.00,Wunderground v.1.15,2013-05-01 05:22:00,
2013-05-01 01:23:00,52.4,28.1,30.22,SW,226,0.0,3.0,39,0.00,,,0.00,Wunderground v.1.15,2013-05-01 05:23:00,
2013-05-01 01:24:00,52.4,28.1,30.22,SW,226,0.0,3.0,39,0.00,,,0.00,Wunderground v.1.15,2013-05-01 05:24:00,
2013-05-01 01:28:00,52.2,28.6,30.22,SW,226,0.0,3.0,40,0.00,,,0.00,Wunderground v.1.15,2013-05-01 05:28:00,
2013-05-01 01:30:00,52.1,28.5,30.22,SW,226,0.0,3.0,40,0.00,,,0.00,Wunderground v.1.15,2013-05-01 05:30:00,
2013-05-01 01:31:00,52.0,29.0,30.22,SW,226,0.0,3.0,41,0.00,,,0.00,Wunderground v.1.15,2013-05-01 05:31:00,
2013-05-01 01:32:00,51.8,28.8,30.22,SW,226,0.0,3.0,41,0.00,,,0.00,Wunderground v.1.15,2013-05-01 05:32:00,
2013-05-01 01:34:00,51.6,28.6,30.22,SW,226,0.0,3.0,41,0.00,,,0.00,Wunderground v.1.15,2013-05-01 05:34:00,
2013-05-01 01:36:00,51.3,28.4,30.23,SW,226,0.0,3.0,41,0.00,,,0.00,Wunderground v.1.15,2013-05-01 05:36:00,
2013-05-01 01:37:00,51.1,28.2,30.23,SW,226,0.0,3.0,41,0.00,,,0.00,Wunderground v.1.15,2013-05-01 05:37:00,
2013-05-01 01:38:00,50.8,27.9,30.23,SW,226,0.0,3.0,41,0.00,,,0.00,Wunderground v.1.15,2013-05-01 05:38:00,
2013-05-01 01:42:00,50.0,27.8,30.23,SW,226,0.0,3.0,42,0.00,,,0.00,Wunderground v.1.15,2013-05-01 05:42:00,
2013-05-01 01:45:00,49.6,27.4,30.23,SW,226,0.0,3.0,42,0.00,,,0.00,Wunderground v.1.15,2013-05-01 05:45:00,
2013-05-01 01:47:00,49.4,27.2,30.23,SW,227,0.0,3.0,42,0.00,,,0.00,Wunderground v.1.15,2013-05-01 05:47:00,
2013-05-01 01:48:00,49.4,27.2,30.23,SW,227,0.0,3.0,42,0.00,,,0.00,Wunderground v.1.15,2013-05-01 05:48:00,
2013-05-01 01:49:00,49.4,27.8,30.23,SW,227,0.0,3.0,43,0.00,,,0.00,Wunderground v.1.15,2013-05-01 05:49:00,
2013-05-01 01:50:00,49.4,27.2,30.23,SW,227,0.0,3.0,42,0.00,,,0.00,Wunderground v.1.15,2013-05-01 05:50:00,
2013-05-01 01:53:00,49.5,26.7,30.23,SW,227,0.0,3.0,41,0.00,,,0.00,Wunderground v.1.15,2013-05-01 05:53:00,
2013-05-01 01:55:00,49.6,26.8,30.23,SW,227,0.0,3.0,41,0.00,,,0.00,Wunderground v.1.15,2013-05-01 05:55:00,
2013-05-01 01:56:00,49.7,26.9,30.23,SW,227,0.0,3.0,41,0.00,,,0.00,Wunderground v.1.15,2013-05-01 05:56:00,
2013-05-01 01:57:00,49.7,26.9,30.23,SW,227,0.0,3.0,41,0.00,,,0.00,Wunderground v.1.15,2013-05-01 05:57:00,
2013-05-01 01:58:00,49.7,27.5,30.23,SW,227,0.0,3.0,42,0.00,,,0.00,Wunderground v.1.15,2013-05-01 05:58:00,
2013-05-01 02:01:00,49.8,27.6,30.23,SW,227,0.0,2.0,42,0.00,,,0.00,Wunderground v.1.15,2013-05-01 06:01:00,
2013-05-01 02:02:00,49.9,28.3,30.23,SW,227,0.0,2.0,43,0.00,,,0.00,Wunderground v.1.15,2013-05-01 06:02:00,
2013-05-01 02:06:00,49.8,29.8,30.23,SW,227,0.0,2.0,46,0.00,,,0.00,Wunderground v.1.15,2013-05-01 06:06:00,
2013-05-01 02:07:00,49.7,30.3,30.23,SW,227,0.0,2.0,47,0.00,,,0.00,Wunderground v.1.15,2013-05-01 06:07:00,
2013-05-01 02:08:00,49.7,30.8,30.23,SW,227,0.0,2.0,48,0.00,,,0.00,Wunderground v.1.15,2013-05-01 06:08:00,
2013-05-01 02:10:00,49.6,31.2,30.23,SW,227,0.0,2.0,49,0.00,,,0.00,Wunderground v.1.15,2013-05-01 06:10:00,
2013-05-01 02:14:00,49.4,30.0,30.23,SW,227,0.0,2.0,47,0.00,,,0.00,Wunderground v.1.15,2013-05-01 06:14:00,
2013-05-01 02:15:00,49.3,29.9,30.23,SW,227,0.0,2.0,47,0.00,,,0.00,Wunderground v.1.15,2013-05-01 06:15:00,
2013-05-01 02:16:00,49.2,29.8,30.23,SW,227,0.0,2.0,47,0.00,,,0.00,Wunderground v.1.15,2013-05-01 06:16:00,
2013-05-01 02:18:00,49.1,29.2,30.23,SW,227,0.0,2.0,46,0.00,,,0.00,Wunderground v.1.15,2013-05-01 06:18:00,
2013-05-01 02:21:00,48.7,28.8,30.23,SW,227,0.0,2.0,46,0.00,,,0.00,Wunderground v.1.15,2013-05-01 06:21:00,
2013-05-01 02:23:00,48.4,28.5,30.23,SW,227,0.0,2.0,46,0.00,,,0.00,Wunderground v.1.15,2013-05-01 06:23:00,
2013-05-01 02:25:00,48.2,28.9,30.24,SW,227,0.0,2.0,47,0.00,,,0.00,Wunderground v.1.15,2013-05-01 06:25:00,
2013-05-01 02:29:00,47.9,28.6,30.24,SW,227,0.0,2.0,47,0.00,,,0.00,Wunderground v.1.15,2013-05-01 06:29:00,
2013-05-01 02:30:00,47.9,28.1,30.24,SW,227,0.0,2.0,46,0.00,,,0.00,Wunderground v.1.15,2013-05-01 06:30:00,
2013-05-01 02:32:00,47.9,28.1,30.24,SW,227,0.0,2.0,46,0.00,,,0.00,Wunderground v.1.15,2013-05-01 06:32:00,
2013-05-01 02:33:00,47.9,29.1,30.24,SW,227,0.0,2.0,48,0.00,,,0.00,Wunderground v.1.15,2013-05-01 06:33:00,
2013-05-01 02:35:00,47.8,29.5,30.24,SW,227,0.0,2.0,49,0.00,,,0.00,Wunderground v.1.15,2013-05-01 06:35:00,
2013-05-01 02:39:00,47.6,29.9,30.24,SW,227,0.0,3.0,50,0.00,,,0.00,Wunderground v.1.15,2013-05-01 06:39:00,
2013-05-01 02:41:00,47.4,30.2,30.24,SW,227,0.0,2.0,51,0.00,,,0.00,Wunderground v.1.15,2013-05-01 06:41:00,
2013-05-01 02:42:00,47.3,30.1,30.24,SW,227,0.0,2.0,51,0.00,,,0.00,Wunderground v.1.15,2013-05-01 06:42:00,
2013-05-01 02:45:00,47.3,30.5,30.25,SW,227,0.0,2.0,52,0.00,,,0.00,Wunderground v.1.15,2013-05-01 06:45:00,
2013-05-01 02:47:00,47.2,30.0,30.25,SW,227,0.0,2.0,51,0.00,,,0.00,Wunderground v.1.15,2013-05-01 06:47:00,
2013-05-01 02:48:00,47.2,30.0,30.25,SW,227,0.0,2.0,51,0.00,,,0.00,Wunderground v.1.15,2013-05-01 06:48:00,
2013-05-01 02:51:00,47.2,30.5,30.25,SW,227,0.0,2.0,52,0.00,,,0.00,Wunderground v.1.15,2013-05-01 06:51:00,
2013-05-01 02:52:00,47.2,30.5,30.25,SW,227,0.0,2.0,52,0.00,,,0.00,Wunderground v.1.15,2013-05-01 06:52:00,
2013-05-01 02:54:00,47.1,30.4,30.25,SW,227,0.0,2.0,52,0.00,,,0.00,Wunderground v.1.15,2013-05-01 06:54:00,
2013-05-01 02:56:00,46.9,30.6,30.25,SW,227,0.0,2.0,53,0.00,,,0.00,Wunderground v.1.15,2013-05-01 06:56:00,
2013-05-01 03:00:00,46.7,31.4,30.25,SW,227,0.0,3.0,55,0.00,,,0.00,Wunderground v.1.15,2013-05-01 07:00:00,
2013-05-01 03:01:00,46.7,31.4,30.25,SW,227,0.0,3.0,55,0.00,,,0.00,Wunderground v.1.15,2013-05-01 07:01:00,
2013-05-01 03:05:00,46.4,32.4,30.25,SW,227,0.0,3.0,58,0.00,,,0.00,Wunderground v.1.15,2013-05-01 07:05:00,
2013-05-01 03:06:00,46.4,32.4,30.25,SW,227,0.0,3.0,58,0.00,,,0.00,Wunderground v.1.15,2013-05-01 07:06:00,
2013-05-01 03:07:00,46.3,32.3,30.25,SW,227,0.0,3.0,58,0.00,,,0.00,Wunderground v.1.15,2013-05-01 07:07:00,
2013-05-01 03:08:00,46.3,32.7,30.25,SW,227,0.0,3.0,59,0.00,,,0.00,Wunderground v.1.15,2013-05-01 07:08:00,
2013-05-01 03:13:00,46.1,33.4,30.25,SW,227,0.0,3.0,61,0.00,,,0.00,Wunderground v.1.15,2013-05-01 07:13:00,
2013-05-01 03:14:00,46.0,33.7,30.25,SW,227,0.0,3.0,62,0.00,,,0.00,Wunderground v.1.15,2013-05-01 07:14:00,
2013-05-01 03:15:00,45.9,33.6,30.25,SW,227,0.0,3.0,62,0.00,,,0.00,Wunderground v.1.15,2013-05-01 07:15:00,
2013-05-01 03:18:00,45.8,33.9,30.25,SW,227,0.0,3.0,63,0.00,,,0.00,Wunderground v.1.15,2013-05-01 07:18:00,
2013-05-01 03:21:00,45.6,33.7,30.25,SW,227,0.0,3.0,63,0.00,,,0.00,Wunderground v.1.15,2013-05-01 07:21:00,
2013-05-01 03:22:00,45.6,34.1,30.25,SW,227,0.0,3.0,64,0.00,,,0.00,Wunderground v.1.15,2013-05-01 07:22:00,
2013-05-01 03:24:00,45.5,34.4,30.25,SW,227,0.0,3.0,65,0.00,,,0.00,Wunderground v.1.15,2013-05-01 07:24:00,
2013-05-01 03:27:00,45.3,34.2,30.25,SW,227,0.0,3.0,65,0.00,,,0.00,Wunderground v.1.15,2013-05-01 07:27:00,
2013-05-01 03:29:00,45.2,34.1,30.25,SW,227,0.0,3.0,65,0.00,,,0.00,Wunderground v.1.15,2013-05-01 07:29:00,
2013-05-01 03:31:00,45.1,34.4,30.25,SW,227,0.0,3.0,66,0.00,,,0.00,Wunderground v.1.15,2013-05-01 07:31:00,
2013-05-01 03:33:00,45.0,34.3,30.25,SW,227,0.0,3.0,66,0.00,,,0.00,Wunderground v.1.15,2013-05-01 07:33:00,
2013-05-01 03:34:00,44.9,34.2,30.25,SW,227,0.0,3.0,66,0.00,,,0.00,Wunderground v.1.15,2013-05-01 07:34:00,
2013-05-01 03:35:00,44.8,34.1,30.25,SW,227,0.0,3.0,66,0.00,,,0.00,Wunderground v.1.15,2013-05-01 07:35:00,
2013-05-01 03:38:00,44.5,33.8,30.25,SW,227,0.0,3.0,66,0.00,,,0.00,Wunderground v.1.15,2013-05-01 07:38:00,
2013-05-01 03:40:00,44.3,33.7,30.25,SW,227,0.0,3.0,66,0.00,,,0.00,Wunderground v.1.15,2013-05-01 07:40:00,
2013-05-01 03:41:00,44.2,33.6,30.25,SW,227,0.0,3.0,66,0.00,,,0.00,Wunderground v.1.15,2013-05-01 07:41:00,
2013-05-01 03:43:00,44.0,33.0,30.25,SW,227,0.0,3.0,65,0.00,,,0.00,Wunderground v.1.15,2013-05-01 07:43:00,
2013-05-01 03:47:00,43.8,32.8,30.25,SW,227,0.0,3.0,65,0.00,,,0.00,Wunderground v.1.15,2013-05-01 07:47:00,
2013-05-01 03:50:00,43.7,32.3,30.26,SW,227,0.0,3.0,64,0.00,,,0.00,Wunderground v.1.15,2013-05-01 07:50:00,
2013-05-01 03:51:00,43.7,32.3,30.26,SW,227,0.0,3.0,64,0.00,,,0.00,Wunderground v.1.15,2013-05-01 07:51:00,
2013-05-01 03:52:00,43.7,31.9,30.26,SW,227,0.0,3.0,63,0.00,,,0.00,Wunderground v.1.15,2013-05-01 07:52:00,
2013-05-01 03:54:00,43.7,31.9,30.26,SW,227,0.0,3.0,63,0.00,,,0.00,Wunderground v.1.15,2013-05-01 07:54:00,
2013-05-01 03:57:00,43.7,32.3,30.26,SW,227,0.0,3.0,64,0.00,,,0.00,Wunderground v.1.15,2013-05-01 07:57:00,
2013-05-01 03:58:00,43.7,32.3,30.26,SW,227,0.0,3.0,64,0.00,,,0.00,Wunderground v.1.15,2013-05-01 07:58:00,
2013-05-01 03:59:00,43.7,32.3,30.26,SW,227,0.0,3.0,64,0.00,,,0.00,Wunderground v.1.15,2013-05-01 07:59:00,
2013-05-01 04:00:00,43.7,32.3,30.26,SW,227,0.0,1.0,64,0.00,,,0.00,Wunderground v.1.15,2013-05-01 08:00:00,
2013-05-01 04:02:00,43.7,32.3,30.26,SW,227,0.0,1.0,64,0.00,,,0.00,Wunderground v.1.15,2013-05-01 08:02:00,
2013-05-01 04:04:00,43.7,32.7,30.26,SW,227,0.0,1.0,65,0.00,,,0.00,Wunderground v.1.15,2013-05-01 08:04:00,
2013-05-01 04:05:00,43.7,32.7,30.26,SW,227,0.0,1.0,65,0.00,,,0.00,Wunderground v.1.15,2013-05-01 08:05:00,
2013-05-01 04:06:00,43.7,32.7,30.26,SW,227,0.0,1.0,65,0.00,,,0.00,Wunderground v.1.15,2013-05-01 08:06:00,
2013-05-01 04:08:00,43.7,32.7,30.26,SW,227,0.0,1.0,65,0.00,,,0.00,Wunderground v.1.15,2013-05-01 08:08:00,
2013-05-01 04:09:00,43.6,32.6,30.26,SW,227,0.0,1.0,65,0.00,,,0.00,Wunderground v.1.15,2013-05-01 08:09:00,
2013-05-01 04:11:00,43.6,32.6,30.26,SW,227,0.0,1.0,65,0.00,,,0.00,Wunderground v.1.15,2013-05-01 08:11:00,
2013-05-01 04:14:00,43.5,33.3,30.26,SW,227,0.0,1.0,67,0.00,,,0.00,Wunderground v.1.15,2013-05-01 08:14:00,
2013-05-01 04:16:00,43.5,33.6,30.26,SW,227,0.0,1.0,68,0.00,,,0.00,Wunderground v.1.15,2013-05-01 08:16:00,
2013-05-01 04:18:00,43.5,33.3,30.26,SW,227,0.0,1.0,67,0.00,,,0.00,Wunderground v.1.15,2013-05-01 08:18:00,
2013-05-01 04:21:00,43.3,32.7,30.26,SW,227,0.0,1.0,66,0.00,,,0.00,Wunderground v.1.15,2013-05-01 08:21:00,
2013-05-01 04:23:00,43.3,32.3,30.26,SW,227,0.0,1.0,65,0.00,,,0.00,Wunderground v.1.15,2013-05-01 08:23:00,
2013-05-01 04:24:00,43.2,32.6,30.26,SW,227,0.0,1.0,66,0.00,,,0.00,Wunderground v.1.15,2013-05-01 08:24:00,
2013-05-01 04:28:00,43.1,32.5,30.26,SW,227,0.0,2.0,66,0.00,,,0.00,Wunderground v.1.15,2013-05-01 08:28:00,
2013-05-01 04:29:00,43.0,32.4,30.26,SW,227,0.0,2.0,66,0.00,,,0.00,Wunderground v.1.15,2013-05-01 08:29:00,
2013-05-01 04:30:00,43.0,32.0,30.26,SW,227,0.0,1.0,65,0.00,,,0.00,Wunderground v.1.15,2013-05-01 08:30:00,
2013-05-01 04:31:00,42.9,32.3,30.26,SW,227,0.0,1.0,66,0.00,,,0.00,Wunderground v.1.15,2013-05-01 08:31:00,
2013-05-01 04:33:00,42.8,32.2,30.26,SW,227,0.0,1.0,66,0.00,,,0.00,Wunderground v.1.15,2013-05-01 08:33:00,
2013-05-01 04:34:00,42.7,32.1,30.26,SW,227,0.0,1.0,66,0.00,,,0.00,Wunderground v.1.15,2013-05-01 08:34:00,
2013-05-01 04:36:00,42.7,31.7,30.26,SW,227,0.0,1.0,65,0.00,,,0.00,Wunderground v.1.15,2013-05-01 08:36:00,
2013-05-01 04:40:00,42.6,31.7,30.26,SW,227,0.0,1.0,65,0.00,,,0.00,Wunderground v.1.15,2013-05-01 08:40:00,
2013-05-01 04:42:00,42.6,31.7,30.26,SW,227,0.0,1.0,65,0.00,,,0.00,Wunderground v.1.15,2013-05-01 08:42:00,
2013-05-01 04:43:00,42.6,31.7,30.26,SW,227,0.0,1.0,65,0.00,,,0.00,Wunderground v.1.15,2013-05-01 08:43:00,
2013-05-01 04:44:00,42.6,31.7,30.26,SW,227,0.0,1.0,65,0.00,,,0.00,Wunderground v.1.15,2013-05-01 08:44:00,
2013-05-01 04:47:00,42.5,32.3,30.26,SW,227,0.0,1.0,67,0.00,,,0.00,Wunderground v.1.15,2013-05-01 08:47:00,
2013-05-01 04:48:00,42.5,32.7,30.27,SW,227,0.0,1.0,68,0.00,,,0.00,Wunderground v.1.15,2013-05-01 08:48:00,
2013-05-01 04:49:00,42.4,32.9,30.27,SW,227,0.0,1.0,69,0.00,,,0.00,Wunderground v.1.15,2013-05-01 08:49:00,
2013-05-01 04:54:00,42.1,33.4,30.27,SW,227,0.0,1.0,71,0.00,,,0.00,Wunderground v.1.15,2013-05-01 08:54:00,
2013-05-01 04:55:00,42.1,33.7,30.26,SW,227,0.0,1.0,72,0.00,,,0.00,Wunderground v.1.15,2013-05-01 08:55:00,
2013-05-01 04:57:00,41.9,33.9,30.27,SW,227,0.0,1.0,73,0.00,,,0.00,Wunderground v.1.15,2013-05-01 08:57:00,
2013-05-01 04:58:00,41.8,33.8,30.27,SW,227,0.0,1.0,73,0.00,,,0.00,Wunderground v.1.15,2013-05-01 08:58:00,
2013-05-01 04:59:00,41.8,33.8,30.27,SW,227,0.0,1.0,73,0.00,,,0.00,Wunderground v.1.15,2013-05-01 08:59:00,
2013-05-01 05:01:00,41.6,33.6,30.27,SW,227,0.0,1.0,73,0.00,,,0.00,Wunderground v.1.15,2013-05-01 09:01:00,
2013-05-01 05:04:00,41.4,33.0,30.27,SW,227,0.0,1.0,72,0.00,,,0.00,Wunderground v.1.15,2013-05-01 09:04:00,
2013-05-01 05:06:00,41.3,33.3,30.27,SW,227,0.0,1.0,73,0.00,,,0.00,Wunderground v.1.15,2013-05-01 09:06:00,
2013-05-01 05:07:00,41.2,32.9,30.27,SW,227,0.0,1.0,72,0.00,,,0.00,Wunderground v.1.15,2013-05-01 09:07:00,
2013-05-01 05:08:00,41.1,32.8,30.27,SW,227,0.0,1.0,72,0.00,,,0.00,Wunderground v.1.15,2013-05-01 09:08:00,
2013-05-01 05:13:00,40.7,32.4,30.27,SW,227,0.0,1.0,72,0.00,,,0.00,Wunderground v.1.15,2013-05-01 09:13:00,
2013-05-01 05:14:00,40.7,32.7,30.27,SW,227,0.0,1.0,73,0.00,,,0.00,Wunderground v.1.15,2013-05-01 09:14:00,
2013-05-01 05:17:00,40.6,33.0,30.27,SW,227,0.0,1.0,74,0.00,,,0.00,Wunderground v.1.15,2013-05-01 09:17:00,
2013-05-01 05:18:00,40.5,32.9,30.27,SW,227,0.0,1.0,74,0.00,,,0.00,Wunderground v.1.15,2013-05-01 09:18:00,
2013-05-01 05:19:00,40.5,32.9,30.27,SW,227,0.0,1.0,74,0.00,,,0.00,Wunderground v.1.15,2013-05-01 09:19:00,
2013-05-01 05:21:00,40.4,32.8,30.27,SW,227,0.0,1.0,74,0.00,,,0.00,Wunderground v.1.15,2013-05-01 09:21:00,
2013-05-01 05:24:00,40.3,32.7,30.27,SW,227,0.0,1.0,74,0.00,,,0.00,Wunderground v.1.15,2013-05-01 09:24:00,
2013-05-01 05:25:00,40.3,32.7,30.27,SW,227,0.0,1.0,74,0.00,,,0.00,Wunderground v.1.15,2013-05-01 09:25:00,
2013-05-01 05:28:00,40.3,32.7,30.27,SW,227,0.0,1.0,74,0.00,,,0.00,Wunderground v.1.15,2013-05-01 09:28:00,
2013-05-01 05:29:00,40.3,32.7,30.27,SW,227,0.0,1.0,74,0.00,,,0.00,Wunderground v.1.15,2013-05-01 09:29:00,
2013-05-01 05:30:00,40.3,32.7,30.27,SW,227,0.0,1.0,74,0.00,,,0.00,Wunderground v.1.15,2013-05-01 09:30:00,
2013-05-01 05:31:00,40.3,33.0,30.27,SW,227,0.0,1.0,75,0.00,,,0.00,Wunderground v.1.15,2013-05-01 09:31:00,
2013-05-01 05:34:00,40.3,33.0,30.28,SW,227,0.0,1.0,75,0.00,,,0.00,Wunderground v.1.15,2013-05-01 09:34:00,
2013-05-01 05:36:00,40.4,33.1,30.28,SW,227,0.0,1.0,75,0.00,,,0.00,Wunderground v.1.15,2013-05-01 09:36:00,
2013-05-01 05:37:00,40.4,33.1,30.28,SW,227,0.0,1.0,75,0.00,,,0.00,Wunderground v.1.15,2013-05-01 09:37:00,
2013-05-01 05:39:00,40.4,33.1,30.28,SW,227,0.0,1.0,75,0.00,,,0.00,Wunderground v.1.15,2013-05-01 09:39:00,
2013-05-01 05:41:00,40.4,33.1,30.28,SW,227,0.0,1.0,75,0.00,,,0.00,Wunderground v.1.15,2013-05-01 09:41:00,
2013-05-01 05:45:00,40.3,33.0,30.28,SW,227,0.0,1.0,75,0.00,,,0.00,Wunderground v.1.15,2013-05-01 09:45:00,
2013-05-01 05:47:00,40.3,33.3,30.28,SW,227,0.0,1.0,76,0.00,,,0.00,Wunderground v.1.15,2013-05-01 09:47:00,
2013-05-01 05:50:00,40.2,33.2,30.28,SW,227,0.0,1.0,76,0.00,,,0.00,Wunderground v.1.15,2013-05-01 09:50:00,
2013-05-01 05:52:00,40.2,33.2,30.28,SW,227,0.0,1.0,76,0.00,,,0.00,Wunderground v.1.15,2013-05-01 09:52:00,
2013-05-01 05:54:00,40.2,33.2,30.28,SW,227,0.0,1.0,76,0.00,,,0.00,Wunderground v.1.15,2013-05-01 09:54:00,
2013-05-01 05:55:00,40.2,33.6,30.28,SW,227,0.0,1.0,77,0.00,,,0.00,Wunderground v.1.15,2013-05-01 09:55:00,
2013-05-01 05:56:00,40.2,33.6,30.28,SW,227,0.0,1.0,77,0.00,,,0.00,Wunderground v.1.15,2013-05-01 09:56:00,
2013-05-01 05:59:00,40.2,33.2,30.28,SW,227,0.0,1.0,76,0.00,,,0.00,Wunderground v.1.15,2013-05-01 09:59:00,
2013-05-01 06:00:00,40.2,33.2,30.28,SW,227,0.0,1.0,76,0.00,,,0.00,Wunderground v.1.15,2013-05-01 10:00:00,
2013-05-01 06:03:00,40.1,33.1,30.28,SW,227,0.0,1.0,76,0.00,,,0.00,Wunderground v.1.15,2013-05-01 10:03:00,
2013-05-01 06:04:00,40.1,33.1,30.28,SSW,192,0.0,1.0,76,0.00,,,0.00,Wunderground v.1.15,2013-05-01 10:04:00,
2013-05-01 06:07:00,40.1,33.1,30.29,South,183,0.0,1.0,76,0.00,,,0.00,Wunderground v.1.15,2013-05-01 10:07:00,
2013-05-01 06:10:00,40.2,33.2,30.29,South,183,0.0,1.0,76,0.00,,,0.00,Wunderground v.1.15,2013-05-01 10:10:00,
2013-05-01 06:11:00,40.2,33.2,30.29,South,183,0.0,1.0,76,0.00,,,0.00,Wunderground v.1.15,2013-05-01 10:11:00,
2013-05-01 06:13:00,40.2,33.2,30.29,South,183,0.0,1.0,76,0.00,,,0.00,Wunderground v.1.15,2013-05-01 10:13:00,
2013-05-01 06:15:00,40.2,33.2,30.29,South,183,0.0,1.0,76,0.00,,,0.00,Wunderground v.1.15,2013-05-01 10:15:00,
2013-05-01 06:16:00,40.3,33.3,30.29,South,183,0.0,1.0,76,0.00,,,0.00,Wunderground v.1.15,2013-05-01 10:16:00,
2013-05-01 06:17:00,40.4,33.4,30.29,South,183,0.0,1.0,76,0.00,,,0.00,Wunderground v.1.15,2013-05-01 10:17:00,
2013-05-01 06:19:00,40.5,33.2,30.29,South,183,0.0,1.0,75,0.00,,,0.00,Wunderground v.1.15,2013-05-01 10:19:00,
2013-05-01 06:23:00,40.9,33.2,30.30,South,183,0.0,1.0,74,0.00,,,0.00,Wunderground v.1.15,2013-05-01 10:23:00,
2013-05-01 06:24:00,40.9,33.2,30.30,South,183,0.0,1.0,74,0.00,,,0.00,Wunderground v.1.15,2013-05-01 10:24:00,
2013-05-01 06:25:00,41.0,33.3,30.30,South,183,0.0,1.0,74,0.00,,,0.00,Wunderground v.1.15,2013-05-01 10:25:00,
2013-05-01 06:26:00,41.1,33.4,30.30,South,183,0.0,1.0,74,0.00,,,0.00,Wunderground v.1.15,2013-05-01 10:26:00,
2013-05-01 06:29:00,41.3,34.0,30.30,South,183,0.0,1.0,75,0.00,,,0.00,Wunderground v.1.15,2013-05-01 10:29:00,
2013-05-01 06:32:00,41.4,33.7,30.30,South,183,0.0,1.0,74,0.00,,,0.00,Wunderground v.1.15,2013-05-01 10:32:00,
2013-05-01 06:33:00,41.5,33.8,30.30,South,183,0.0,1.0,74,0.00,,,0.00,Wunderground v.1.15,2013-05-01 10:33:00,
2013-05-01 06:35:00,41.6,33.9,30.30,South,183,0.0,1.0,74,0.00,,,0.00,Wunderground v.1.15,2013-05-01 10:35:00,
2013-05-01 06:37:00,41.6,33.9,30.31,South,183,0.0,1.0,74,0.00,,,0.00,Wunderground v.1.15,2013-05-01 10:37:00,
2013-05-01 06:39:00,41.8,34.1,30.31,South,183,0.0,1.0,74,0.00,,,0.00,Wunderground v.1.15,2013-05-01 10:39:00,
2013-05-01 06:43:00,42.0,34.3,30.31,South,183,0.0,1.0,74,0.00,,,0.00,Wunderground v.1.15,2013-05-01 10:43:00,
2013-05-01 06:45:00,42.1,34.4,30.31,South,183,0.0,1.0,74,0.00,,,0.00,Wunderground v.1.15,2013-05-01 10:45:00,
2013-05-01 06:46:00,42.2,34.5,30.31,South,183,0.0,1.0,74,0.00,,,0.00,Wunderground v.1.15,2013-05-01 10:46:00,
2013-05-01 06:50:00,42.4,34.4,30.31,South,183,0.0,1.0,73,0.00,,,0.00,Wunderground v.1.15,2013-05-01 10:50:00,
2013-05-01 06:51:00,42.4,34.4,30.31,South,183,0.0,1.0,73,0.00,,,0.00,Wunderground v.1.15,2013-05-01 10:51:00,
2013-05-01 06:54:00,42.5,34.1,30.31,South,183,0.0,1.0,72,0.00,,,0.00,Wunderground v.1.15,2013-05-01 10:54:00,
2013-05-01 06:56:00,42.7,34.3,30.31,South,183,0.0,1.0,72,0.00,,,0.00,Wunderground v.1.15,2013-05-01 10:56:00,
2013-05-01 06:57:00,42.8,34.4,30.31,South,183,0.0,1.0,72,0.00,,,0.00,Wunderground v.1.15,2013-05-01 10:57:00,
2013-05-01 06:58:00,42.9,34.5,30.31,South,183,0.0,1.0,72,0.00,,,0.00,Wunderground v.1.15,2013-05-01 10:58:00,
2013-05-01 07:01:00,43.1,34.7,30.31,South,183,0.0,1.0,72,0.00,,,0.00,Wunderground v.1.15,2013-05-01 11:01:00,
2013-05-01 07:04:00,43.2,34.4,30.31,SSE,161,0.0,1.0,71,0.00,,,0.00,Wunderground v.1.15,2013-05-01 11:04:00,
2013-05-01 07:05:00,43.2,34.4,30.31,SSE,160,0.0,1.0,71,0.00,,,0.00,Wunderground v.1.15,2013-05-01 11:05:00,
2013-05-01 07:07:00,43.3,34.2,30.31,SSE,148,0.0,2.0,70,0.00,,,0.00,Wunderground v.1.15,2013-05-01 11:07:00,
2013-05-01 07:10:00,43.4,34.6,30.31,ESE,123,0.0,1.0,71,0.00,,,0.00,Wunderground v.1.15,2013-05-01 11:10:00,
2013-05-01 07:11:00,43.4,34.6,30.31,ENE,59,0.0,2.0,71,0.00,,,0.00,Wunderground v.1.15,2013-05-01 11:11:00,
2013-05-01 07:12:00,43.5,34.4,30.31,NE,42,1.0,2.0,70,0.00,,,0.00,Wunderground v.1.15,2013-05-01 11:12:00,
2013-05-01 07:17:00,43.7,34.6,30.31,NE,38,0.0,2.0,70,0.00,,,0.00,Wunderground v.1.15,2013-05-01 11:17:00,
2013-05-01 07:20:00,43.8,34.6,30.32,NNE,33,0.0,1.0,70,0.00,,,0.00,Wunderground v.1.15,2013-05-01 11:20:00,
2013-05-01 07:21:00,43.9,34.7,30.32,NNE,32,0.0,3.0,70,0.00,,,0.00,Wunderground v.1.15,2013-05-01 11:21:00,
2013-05-01 07:23:00,44.0,34.8,30.32,NNE,32,0.0,3.0,70,0.00,,,0.00,Wunderground v.1.15,2013-05-01 11:23:00,
2013-05-01 07:24:00,44.0,34.8,30.32,NNE,32,0.0,3.0,70,0.00,,,0.00,Wunderground v.1.15,2013-05-01 11:24:00,
2013-05-01 07:26:00,44.2,35.0,30.32,NNE,31,0.0,3.0,70,0.00,,,0.00,Wunderground v.1.15,2013-05-01 11:26:00,
2013-05-01 07:29:00,44.4,34.9,30.32,NNE,31,0.0,3.0,69,0.00,,,0.00,Wunderground v.1.15,2013-05-01 11:29:00,
2013-05-01 07:31:00,44.6,35.1,30.32,NNE,31,0.0,1.0,69,0.00,,,0.00,Wunderground v.1.15,2013-05-01 11:31:00,
2013-05-01 07:33:00,44.9,35.3,30.32,NNE,31,0.0,1.0,69,0.00,,,0.00,Wunderground v.1.15,2013-05-01 11:33:00,
2013-05-01 07:35:00,45.1,35.2,30.32,NNE,31,0.0,1.0,68,0.00,,,0.00,Wunderground v.1.15,2013-05-01 11:35:00,
2013-05-01 07:36:00,45.1,35.2,30.32,NNE,31,0.0,1.0,68,0.00,,,0.00,Wunderground v.1.15,2013-05-01 11:36:00,
2013-05-01 07:41:00,45.6,35.6,30.32,NNE,32,0.0,1.0,68,0.00,,,0.00,Wunderground v.1.15,2013-05-01 11:41:00,
2013-05-01 07:42:00,45.7,35.7,30.32,NNE,32,0.0,1.0,68,0.00,,,0.00,Wunderground v.1.15,2013-05-01 11:42:00,
2013-05-01 07:44:00,45.8,35.8,30.32,NE,37,0.0,1.0,68,0.00,,,0.00,Wunderground v.1.15,2013-05-01 11:44:00,
2013-05-01 07:47:00,46.0,35.7,30.32,NE,35,0.0,1.0,67,0.00,,,0.00,Wunderground v.1.15,2013-05-01 11:47:00,
2013-05-01 07:49:00,46.1,35.4,30.32,NNE,29,0.0,1.0,66,0.00,,,0.00,Wunderground v.1.15,2013-05-01 11:49:00,
2013-05-01 07:50:00,46.1,35.4,30.32,NNE,28,0.0,1.0,66,0.00,,,0.00,Wunderground v.1.15,2013-05-01 11:50:00,
2013-05-01 07:52:00,46.3,35.2,30.32,NNE,28,0.0,1.0,65,0.00,,,0.00,Wunderground v.1.15,2013-05-01 11:52:00,
2013-05-01 07:53:00,46.4,35.3,30.32,NNE,28,0.0,1.0,65,0.00,,,0.00,Wunderground v.1.15,2013-05-01 11:53:00,
2013-05-01 07:55:00,46.6,35.5,30.32,NE,40,0.0,1.0,65,0.00,,,0.00,Wunderground v.1.15,2013-05-01 11:55:00,
2013-05-01 07:59:00,47.0,35.4,30.32,NE,37,0.0,1.0,64,0.00,,,0.00,Wunderground v.1.15,2013-05-01 11:59:00,
2013-05-01 08:00:00,47.1,35.5,30.32,NE,37,0.0,3.0,64,0.00,,,0.00,Wunderground v.1.15,2013-05-01 12:00:00,
2013-05-01 08:01:00,47.2,35.6,30.32,NE,37,0.0,3.0,64,0.00,,,0.00,Wunderground v.1.15,2013-05-01 12:01:00,
2013-05-01 08:02:00,47.3,35.7,30.32,NE,37,0.0,3.0,64,0.00,,,0.00,Wunderground v.1.15,2013-05-01 12:02:00,
2013-05-01 08:06:00,47.9,35.5,30.32,NE,37,0.0,3.0,62,0.00,,,0.00,Wunderground v.1.15,2013-05-01 12:06:00,
2013-05-01 08:08:00,48.1,35.7,30.32,NE,37,0.0,3.0,62,0.00,,,0.00,Wunderground v.1.15,2013-05-01 12:08:00,
2013-05-01 08:09:00,48.2,35.8,30.32,NE,37,0.0,3.0,62,0.00,,,0.00,Wunderground v.1.15,2013-05-01 12:09:00,
2013-05-01 08:10:00,48.3,35.9,30.32,NE,37,0.0,3.0,62,0.00,,,0.00,Wunderground v.1.15,2013-05-01 12:10:00,
2013-05-01 08:12:00,48.4,35.6,30.32,NE,37,0.0,3.0,61,0.00,,,0.00,Wunderground v.1.15,2013-05-01 12:12:00,
2013-05-01 08:15:00,48.9,36.4,30.32,NE,37,0.0,3.0,62,0.00,,,0.00,Wunderground v.1.15,2013-05-01 12:15:00,
2013-05-01 08:17:00,49.1,36.2,30.32,NE,37,0.0,3.0,61,0.00,,,0.00,Wunderground v.1.15,2013-05-01 12:17:00,
2013-05-01 08:18:00,49.2,36.3,30.32,NE,37,0.0,3.0,61,0.00,,,0.00,Wunderground v.1.15,2013-05-01 12:18:00,
2013-05-01 08:19:00,49.4,36.5,30.32,NE,37,0.0,3.0,61,0.00,,,0.00,Wunderground v.1.15,2013-05-01 12:19:00,
2013-05-01 08:23:00,49.9,36.6,30.32,NE,37,0.0,3.0,60,0.00,,,0.00,Wunderground v.1.15,2013-05-01 12:23:00,
2013-05-01 08:24:00,50.0,37.1,30.32,NE,37,0.0,3.0,61,0.00,,,0.00,Wunderground v.1.15,2013-05-01 12:24:00,
2013-05-01 08:25:00,50.1,37.2,30.32,NE,37,0.0,3.0,61,0.00,,,0.00,Wunderground v.1.15,2013-05-01 12:25:00,
2013-05-01 08:27:00,50.3,36.9,30.32,NE,37,0.0,3.0,60,0.00,,,0.00,Wunderground v.1.15,2013-05-01 12:27:00,
2013-05-01 08:30:00,50.8,37.0,30.32,NE,36,0.0,3.0,59,0.00,,,0.00,Wunderground v.1.15,2013-05-01 12:30:00,
2013-05-01 08:33:00,51.1,37.3,30.32,ENE,58,0.0,3.0,59,0.00,,,0.00,Wunderground v.1.15,2013-05-01 12:33:00,
2013-05-01 08:34:00,51.3,37.4,30.32,ENE,58,0.0,3.0,59,0.00,,,0.00,Wunderground v.1.15,2013-05-01 12:34:00,
2013-05-01 08:38:00,52.0,37.7,30.32,ENE,57,0.0,3.0,58,0.00,,,0.00,Wunderground v.1.15,2013-05-01 12:38:00,
2013-05-01 08:40:00,52.4,37.6,30.32,ENE,65,0.0,3.0,57,0.00,,,0.00,Wunderground v.1.15,2013-05-01 12:40:00,
2013-05-01 08:43:00,52.9,37.6,30.32,East,79,0.0,3.0,56,0.00,,,0.00,Wunderground v.1.15,2013-05-01 12:43:00,
2013-05-01 08:44:00,53.0,37.7,30.32,ENE,78,0.0,3.0,56,0.00,,,0.00,Wunderground v.1.15,2013-05-01 12:44:00,
2013-05-01 08:46:00,53.2,37.9,30.32,East,80,0.0,3.0,56,0.00,,,0.00,Wunderground v.1.15,2013-05-01 12:46:00,
2013-05-01 08:47:00,53.3,37.5,30.32,East,80,0.0,3.0,55,0.00,,,0.00,Wunderground v.1.15,2013-05-01 12:47:00,
2013-05-01 08:50:00,53.7,38.4,30.32,SE,133,0.0,3.0,56,0.00,,,0.00,Wunderground v.1.15,2013-05-01 12:50:00,
2013-05-01 08:52:00,53.8,37.5,30.32,ESE,123,0.0,3.0,54,0.00,,,0.00,Wunderground v.1.15,2013-05-01 12:52:00,
2013-05-01 08:53:00,53.9,37.6,30.32,ESE,121,0.0,3.0,54,0.00,,,0.00,Wunderground v.1.15,2013-05-01 12:53:00,
2013-05-01 08:54:00,54.0,38.2,30.32,ESE,121,0.0,3.0,55,0.00,,,0.00,Wunderground v.1.15,2013-05-01 12:54:00,
2013-05-01 08:56:00,54.1,37.8,30.32,ESE,119,0.0,3.0,54,0.00,,,0.00,Wunderground v.1.15,2013-05-01 12:56:00,
2013-05-01 08:59:00,54.4,38.1,30.32,ESE,112,0.0,3.0,54,0.00,,,0.00,Wunderground v.1.15,2013-05-01 12:59:00,
2013-05-01 09:00:00,54.5,37.7,30.32,ESE,107,0.0,3.0,53,0.00,,,0.00,Wunderground v.1.15,2013-05-01 13:00:00,
2013-05-01 09:02:00,54.7,37.4,30.32,ESE,113,0.0,3.0,52,0.00,,,0.00,Wunderground v.1.15,2013-05-01 13:02:00,
2013-05-01 09:04:00,54.9,37.1,30.32,ESE,114,0.0,3.0,51,0.00,,,0.00,Wunderground v.1.15,2013-05-01 13:04:00,
2013-05-01 09:05:00,54.9,37.6,30.32,ESE,114,0.0,3.0,52,0.00,,,0.00,Wunderground v.1.15,2013-05-01 13:05:00,
2013-05-01 09:07:00,55.1,37.3,30.32,ESE,112,0.0,3.0,51,0.00,,,0.00,Wunderground v.1.15,2013-05-01 13:07:00,
2013-05-01 09:11:00,55.6,37.2,30.33,ESE,103,0.0,3.0,50,0.00,,,0.00,Wunderground v.1.15,2013-05-01 13:11:00,
2013-05-01 09:12:00,55.7,36.8,30.32,ESE,103,0.0,3.0,49,0.00,,,0.00,Wunderground v.1.15,2013-05-01 13:12:00,
2013-05-01 09:13:00,55.8,36.4,30.32,ESE,103,0.0,3.0,48,0.00,,,0.00,Wunderground v.1.15,2013-05-01 13:13:00,
2013-05-01 09:15:00,55.9,37.0,30.32,ESE,103,0.0,3.0,49,0.00,,,0.00,Wunderground v.1.15,2013-05-01 13:15:00,
2013-05-01 09:17:00,56.1,36.7,30.32,East,90,0.0,3.0,48,0.00,,,0.00,Wunderground v.1.15,2013-05-01 13:17:00,
2013-05-01 09:21:00,56.5,37.0,30.33,East,90,0.0,3.0,48,0.00,,,0.00,Wunderground v.1.15,2013-05-01 13:21:00,
2013-05-01 09:22:00,56.5,36.5,30.33,East,90,0.0,3.0,47,0.00,,,0.00,Wunderground v.1.15,2013-05-01 13:22:00,
2013-05-01 09:27:00,57.1,35.4,30.33,East,88,0.0,3.0,44,0.00,,,0.00,Wunderground v.1.15,2013-05-01 13:27:00,
2013-05-01 09:28:00,57.3,35.6,30.33,East,88,0.0,3.0,44,0.00,,,0.00,Wunderground v.1.15,2013-05-01 13:28:00,
2013-05-01 09:31:00,57.6,35.8,30.33,East,88,0.0,3.0,44,0.00,,,0.00,Wunderground v.1.15,2013-05-01 13:31:00,
2013-05-01 09:32:00,57.8,35.4,30.33,East,88,0.0,3.0,43,0.00,,,0.00,Wunderground v.1.15,2013-05-01 13:32:00,
2013-05-01 09:33:00,57.9,35.5,30.33,East,88,0.0,3.0,43,0.00,,,0.00,Wunderground v.1.15,2013-05-01 13:33:00,
2013-05-01 09:34:00,58.0,35.0,30.33,East,88,0.0,3.0,42,0.00,,,0.00,Wunderground v.1.15,2013-05-01 13:34:00,
2013-05-01 09:35:00,58.1,34.5,30.33,East,88,0.0,3.0,41,0.00,,,0.00,Wunderground v.1.15,2013-05-01 13:35:00,
2013-05-01 09:37:00,58.3,34.7,30.33,East,88,0.0,3.0,41,0.00,,,0.00,Wunderground v.1.15,2013-05-01 13:37:00,
2013-05-01 09:38:00,58.3,34.1,30.33,East,88,0.0,3.0,40,0.00,,,0.00,Wunderground v.1.15,2013-05-01 13:38:00,
2013-05-01 09:39:00,58.5,34.2,30.33,East,88,0.0,3.0,40,0.00,,,0.00,Wunderground v.1.15,2013-05-01 13:39:00,
2013-05-01 09:45:00,59.2,35.5,30.33,East,88,0.0,3.0,41,0.00,,,0.00,Wunderground v.1.15,2013-05-01 13:45:00,
2013-05-01 09:46:00,59.4,35.1,30.33,East,88,0.0,3.0,40,0.00,,,0.00,Wunderground v.1.15,2013-05-01 13:46:00,
2013-05-01 09:47:00,59.5,33.9,30.33,East,88,0.0,3.0,38,0.00,,,0.00,Wunderground v.1.15,2013-05-01 13:47:00,
2013-05-01 09:50:00,59.6,33.9,30.33,East,88,0.0,3.0,38,0.00,,,0.00,Wunderground v.1.15,2013-05-01 13:50:00,
2013-05-01 09:52:00,59.8,34.8,30.32,East,89,0.0,3.0,39,0.00,,,0.00,Wunderground v.1.15,2013-05-01 13:52:00,
2013-05-01 09:53:00,59.9,34.9,30.32,East,92,0.0,3.0,39,0.00,,,0.00,Wunderground v.1.15,2013-05-01 13:53:00,
2013-05-01 09:55:00,60.0,34.3,30.32,East,92,0.0,3.0,38,0.00,,,0.00,Wunderground v.1.15,2013-05-01 13:55:00,
2013-05-01 09:56:00,60.0,34.3,30.32,East,92,0.0,3.0,38,0.00,,,0.00,Wunderground v.1.15,2013-05-01 13:56:00,
2013-05-01 09:57:00,60.0,34.3,30.32,East,92,0.0,3.0,38,0.00,,,0.00,Wunderground v.1.15,2013-05-01 13:57:00,
2013-05-01 09:59:00,60.1,34.4,30.32,East,92,0.0,3.0,38,0.00,,,0.00,Wunderground v.1.15,2013-05-01 13:59:00,
2013-05-01 10:01:00,60.3,35.9,30.33,East,92,0.0,1.0,40,0.00,,,0.00,Wunderground v.1.15,2013-05-01 14:01:00,
2013-05-01 10:02:00,60.5,36.0,30.32,East,91,0.0,1.0,40,0.00,,,0.00,Wunderground v.1.15,2013-05-01 14:02:00,
2013-05-01 10:04:00,60.8,35.0,30.32,East,91,0.0,1.0,38,0.00,,,0.00,Wunderground v.1.15,2013-05-01 14:04:00,
2013-05-01 10:05:00,60.9,35.8,30.32,East,90,0.0,1.0,39,0.00,,,0.00,Wunderground v.1.15,2013-05-01 14:05:00,
2013-05-01 10:07:00,61.3,35.5,30.32,East,91,0.0,1.0,38,0.00,,,0.00,Wunderground v.1.15,2013-05-01 14:07:00,
2013-05-01 10:10:00,61.8,37.2,30.32,ESE,107,0.0,1.0,40,0.00,,,0.00,Wunderground v.1.15,2013-05-01 14:10:00,
2013-05-01 10:11:00,62.0,36.7,30.32,ESE,107,0.0,1.0,39,0.00,,,0.00,Wunderground v.1.15,2013-05-01 14:11:00,
2013-05-01 10:13:00,62.4,36.4,30.32,East,92,0.0,4.0,38,0.00,,,0.00,Wunderground v.1.15,2013-05-01 14:13:00,
2013-05-01 10:14:00,62.5,35.9,30.32,East,92,0.0,4.0,37,0.00,,,0.00,Wunderground v.1.15,2013-05-01 14:14:00,
2013-05-01 10:15:00,62.7,36.0,30.32,East,88,1.0,4.0,37,0.00,,,0.00,Wunderground v.1.15,2013-05-01 14:15:00,
2013-05-01 10:17:00,63.0,34.9,30.32,East,82,1.0,4.0,35,0.00,,,0.00,Wunderground v.1.15,2013-05-01 14:17:00,
2013-05-01 10:20:00,63.5,36.7,30.32,East,82,1.0,1.0,37,0.00,,,0.00,Wunderground v.1.15,2013-05-01 14:20:00,
2013-05-01 10:22:00,63.7,38.3,30.32,ESE,115,1.0,1.0,39,0.00,,,0.00,Wunderground v.1.15,2013-05-01 14:22:00,
2013-05-01 10:25:00,64.1,36.6,30.32,ESE,114,0.0,1.0,36,0.00,,,0.00,Wunderground v.1.15,2013-05-01 14:25:00,
2013-05-01 10:27:00,64.2,36.0,30.32,ESE,113,0.0,5.0,35,0.00,,,0.00,Wunderground v.1.15,2013-05-01 14:27:00,
2013-05-01 10:28:00,64.3,36.0,30.32,ESE,116,0.0,5.0,35,0.00,,,0.00,Wunderground v.1.15,2013-05-01 14:28:00,
2013-05-01 10:30:00,64.4,34.6,30.32,ESE,115,0.0,1.0,33,0.00,,,0.00,Wunderground v.1.15,2013-05-01 14:30:00,
2013-05-01 10:32:00,64.5,35.5,30.32,ESE,121,0.0,1.0,34,0.00,,,0.00,Wunderground v.1.15,2013-05-01 14:32:00,
2013-05-01 10:36:00,65.0,35.9,30.32,SE,128,0.0,1.0,34,0.00,,,0.00,Wunderground v.1.15,2013-05-01 14:36:00,
2013-05-01 10:38:00,65.4,33.1,30.32,SE,128,0.0,1.0,30,0.00,,,0.00,Wunderground v.1.15,2013-05-01 14:38:00,
2013-05-01 10:39:00,65.6,33.3,30.32,SE,128,0.0,1.0,30,0.00,,,0.00,Wunderground v.1.15,2013-05-01 14:39:00,
2013-05-01 10:40:00,65.7,33.4,30.32,SE,128,0.0,1.0,30,0.00,,,0.00,Wunderground v.1.15,2013-05-01 14:40:00,
2013-05-01 10:41:00,65.9,34.4,30.32,SE,128,0.0,1.0,31,0.00,,,0.00,Wunderground v.1.15,2013-05-01 14:41:00,
2013-05-01 10:42:00,66.2,33.8,30.32,SE,128,0.0,1.0,30,0.00,,,0.00,Wunderground v.1.15,2013-05-01 14:42:00,
2013-05-01 10:46:00,66.8,31.7,30.32,SE,128,0.0,1.0,27,0.00,,,0.00,Wunderground v.1.15,2013-05-01 14:46:00,
2013-05-01 10:47:00,66.9,31.8,30.32,SE,128,0.0,1.0,27,0.00,,,0.00,Wunderground v.1.15,2013-05-01 14:47:00,
2013-05-01 10:50:00,67.0,32.8,30.32,SE,129,0.0,4.0,28,0.00,,,0.00,Wunderground v.1.15,2013-05-01 14:50:00,
2013-05-01 10:53:00,67.1,32.9,30.31,SSE,147,1.0,4.0,28,0.00,,,0.00,Wunderground v.1.15,2013-05-01 14:53:00,
2013-05-01 10:54:00,67.1,32.9,30.31,SSE,147,1.0,4.0,28,0.00,,,0.00,Wunderground v.1.15,2013-05-01 14:54:00,
2013-05-01 10:56:00,67.1,32.9,30.31,SSE,147,1.0,4.0,28,0.00,,,0.00,Wunderground v.1.15,2013-05-01 14:56:00,
2013-05-01 11:01:00,67.6,32.4,30.31,SSE,147,0.0,4.0,27,0.00,,,0.00,Wunderground v.1.15,2013-05-01 15:01:00,
2013-05-01 11:02:00,67.7,33.4,30.31,SSE,147,0.0,4.0,28,0.00,,,0.00,Wunderground v.1.15,2013-05-01 15:02:00,
2013-05-01 11:03:00,67.9,32.7,30.31,SSE,147,0.0,4.0,27,0.00,,,0.00,Wunderground v.1.15,2013-05-01 15:03:00,
2013-05-01 11:05:00,67.9,33.6,30.31,NW,304,0.0,4.0,28,0.00,,,0.00,Wunderground v.1.15,2013-05-01 15:05:00,
2013-05-01 11:06:00,68.0,34.5,30.31,NW,305,0.0,4.0,29,0.00,,,0.00,Wunderground v.1.15,2013-05-01 15:06:00,
2013-05-01 11:07:00,68.2,33.8,30.31,WNW,297,0.0,4.0,28,0.00,,,0.00,Wunderground v.1.15,2013-05-01 15:07:00,
2013-05-01 11:09:00,68.2,33.8,30.31,South,188,1.0,4.0,28,0.00,,,0.00,Wunderground v.1.15,2013-05-01 15:09:00,
2013-05-01 11:13:00,68.0,35.4,30.31,WSW,244,1.0,4.0,30,0.00,,,0.00,Wunderground v.1.15,2013-05-01 15:13:00,
2013-05-01 11:14:00,67.8,33.5,30.31,West,272,1.0,4.0,28,0.00,,,0.00,Wunderground v.1.15,2013-05-01 15:14:00,
2013-05-01 11:16:00,67.6,32.4,30.31,West,271,1.0,5.0,27,0.00,,,0.00,Wunderground v.1.15,2013-05-01 15:16:00,
2013-05-01 11:19:00,67.3,31.2,30.31,NNW,341,1.0,5.0,26,0.00,,,0.00,Wunderground v.1.15,2013-05-01 15:19:00,
2013-05-01 11:20:00,67.3,30.2,30.31,NNW,341,1.0,1.0,25,0.00,,,0.00,Wunderground v.1.15,2013-05-01 15:20:00,
2013-05-01 11:23:00,67.6,31.5,30.31,NNE,17,1.0,4.0,26,0.00,,,0.00,Wunderground v.1.15,2013-05-01 15:23:00,
2013-05-01 11:24:00,67.7,30.6,30.31,NNE,16,1.0,4.0,25,0.00,,,0.00,Wunderground v.1.15,2013-05-01 15:24:00,
2013-05-01 11:25:00,67.8,30.7,30.31,NNE,14,1.0,4.0,25,0.00,,,0.00,Wunderground v.1.15,2013-05-01 15:25:00,
2013-05-01 11:27:00,68.0,30.8,30.31,NNE,14,1.0,4.0,25,0.00,,,0.00,Wunderground v.1.15,2013-05-01 15:27:00,
2013-05-01 11:28:00,68.2,31.0,30.31,North,11,1.0,4.0,25,0.00,,,0.00,Wunderground v.1.15,2013-05-01 15:28:00,
2013-05-01 11:29:00,68.3,31.1,30.31,North,11,1.0,4.0,25,0.00,,,0.00,Wunderground v.1.15,2013-05-01 15:29:00,
2013-05-01 11:31:00,68.5,31.3,30.30,North,11,1.0,4.0,25,0.00,,,0.00,Wunderground v.1.15,2013-05-01 15:31:00,
2013-05-01 11:35:00,69.0,32.7,30.30,SSE,158,1.0,7.0,26,0.00,,,0.00,Wunderground v.1.15,2013-05-01 15:35:00,
2013-05-01 11:36:00,69.0,31.7,30.30,SSE,147,2.0,7.0,25,0.00,,,0.00,Wunderground v.1.15,2013-05-01 15:36:00,
2013-05-01 11:38:00,69.0,33.6,30.30,SSE,155,2.0,7.0,27,0.00,,,0.00,Wunderground v.1.15,2013-05-01 15:38:00,
2013-05-01 11:42:00,69.4,32.0,30.30,SSE,153,2.0,4.0,25,0.00,,,0.00,Wunderground v.1.15,2013-05-01 15:42:00,
2013-05-01 11:44:00,69.7,33.3,30.30,SSE,153,2.0,4.0,26,0.00,,,0.00,Wunderground v.1.15,2013-05-01 15:44:00,
2013-05-01 11:45:00,69.8,31.4,30.30,SSE,153,2.0,4.0,24,0.00,,,0.00,Wunderground v.1.15,2013-05-01 15:45:00,
2013-05-01 11:48:00,70.2,32.7,30.30,SSE,153,0.0,4.0,25,0.00,,,0.00,Wunderground v.1.15,2013-05-01 15:48:00,
2013-05-01 11:49:00,70.4,32.9,30.30,SSE,153,0.0,4.0,25,0.00,,,0.00,Wunderground v.1.15,2013-05-01 15:49:00,
2013-05-01 11:51:00,70.7,31.1,30.30,SSE,153,0.0,4.0,23,0.00,,,0.00,Wunderground v.1.15,2013-05-01 15:51:00,
2013-05-01 11:52:00,70.7,30.0,30.29,SE,130,0.0,4.0,22,0.00,,,0.00,Wunderground v.1.15,2013-05-01 15:52:00,
2013-05-01 11:53:00,70.7,31.1,30.29,SE,126,0.0,4.0,23,0.00,,,0.00,Wunderground v.1.15,2013-05-01 15:53:00,
2013-05-01 11:55:00,70.9,33.3,30.29,East,92,0.0,4.0,25,0.00,,,0.00,Wunderground v.1.15,2013-05-01 15:55:00,
2013-05-01 11:58:00,71.0,32.4,30.29,SE,138,1.0,6.0,24,0.00,,,0.00,Wunderground v.1.15,2013-05-01 15:58:00,
2013-05-01 11:59:00,70.9,33.3,30.29,SE,140,2.0,6.0,25,0.00,,,0.00,Wunderground v.1.15,2013-05-01 15:59:00,
2013-05-01 12:03:00,70.5,30.9,30.29,South,171,4.0,9.0,23,0.00,,,0.00,Wunderground v.1.15,2013-05-01 16:03:00,
2013-05-01 12:05:00,70.2,29.5,30.29,South,171,5.0,9.0,22,0.00,,,0.00,Wunderground v.1.15,2013-05-01 16:05:00,
2013-05-01 12:06:00,70.2,29.5,30.29,South,171,4.0,9.0,22,0.00,,,0.00,Wunderground v.1.15,2013-05-01 16:06:00,
2013-05-01 12:09:00,70.4,30.8,30.29,SSE,162,3.0,9.0,23,0.00,,,0.00,Wunderground v.1.15,2013-05-01 16:09:00,
2013-05-01 12:10:00,70.5,29.8,30.28,SSE,162,2.0,2.0,22,0.00,,,0.00,Wunderground v.1.15,2013-05-01 16:10:00,
2013-05-01 12:11:00,70.8,31.1,30.28,SSE,162,2.0,9.0,23,0.00,,,0.00,Wunderground v.1.15,2013-05-01 16:11:00,
2013-05-01 12:13:00,71.3,31.6,30.28,SSE,161,1.0,9.0,23,0.00,,,0.00,Wunderground v.1.15,2013-05-01 16:13:00,
2013-05-01 12:16:00,72.1,33.3,30.28,South,178,0.0,9.0,24,0.00,,,0.00,Wunderground v.1.15,2013-05-01 16:16:00,
2013-05-01 12:17:00,72.2,32.3,30.28,West,265,0.0,9.0,23,0.00,,,0.00,Wunderground v.1.15,2013-05-01 16:17:00,
2013-05-01 12:19:00,72.5,34.7,30.28,WNW,283,0.0,9.0,25,0.00,,,0.00,Wunderground v.1.15,2013-05-01 16:19:00,
2013-05-01 12:20:00,72.7,32.7,30.28,WNW,284,0.0,9.0,23,0.00,,,0.00,Wunderground v.1.15,2013-05-01 16:20:00,
2013-05-01 12:24:00,72.7,30.5,30.28,South,188,1.0,9.0,21,0.00,,,0.00,Wunderground v.1.15,2013-05-01 16:24:00,
2013-05-01 12:26:00,72.0,32.1,30.28,SSE,165,3.0,10.0,23,0.00,,,0.00,Wunderground v.1.15,2013-05-01 16:26:00,
2013-05-01 12:27:00,71.5,31.7,30.28,SSE,161,3.0,11.0,23,0.00,,,0.00,Wunderground v.1.15,2013-05-01 16:27:00,
2013-05-01 12:31:00,70.5,28.7,30.28,SSE,150,5.0,9.0,21,0.00,,,0.00,Wunderground v.1.15,2013-05-01 16:31:00,
2013-05-01 12:32:00,70.5,28.7,30.28,SSE,150,5.0,9.0,21,0.00,,,0.00,Wunderground v.1.15,2013-05-01 16:32:00,
2013-05-01 12:35:00,70.9,29.0,30.28,ESE,123,4.0,9.0,21,0.00,,,0.00,Wunderground v.1.15,2013-05-01 16:35:00,
2013-05-01 12:37:00,71.2,31.5,30.27,ESE,123,2.0,9.0,23,0.00,,,0.00,Wunderground v.1.15,2013-05-01 16:37:00,
2013-05-01 12:38:00,71.7,30.8,30.27,ESE,123,1.0,9.0,22,0.00,,,0.00,Wunderground v.1.15,2013-05-01 16:38:00,
2013-05-01 12:40:00,72.2,31.2,30.27,ESE,123,0.0,9.0,22,0.00,,,0.00,Wunderground v.1.15,2013-05-01 16:40:00,
2013-05-01 12:41:00,72.5,31.5,30.27,ESE,123,0.0,9.0,22,0.00,,,0.00,Wunderground v.1.15,2013-05-01 16:41:00,
2013-05-01 12:44:00,72.9,30.6,30.27,SE,124,0.0,9.0,21,0.00,,,0.00,Wunderground v.1.15,2013-05-01 16:44:00,
2013-05-01 12:45:00,73.0,34.1,30.27,SE,126,0.0,9.0,24,0.00,,,0.00,Wunderground v.1.15,2013-05-01 16:45:00,
2013-05-01 12:46:00,73.1,34.1,30.27,SE,140,0.0,9.0,24,0.00,,,0.00,Wunderground v.1.15,2013-05-01 16:46:00,
2013-05-01 12:48:00,73.3,33.2,30.27,SSE,156,0.0,9.0,23,0.00,,,0.00,Wunderground v.1.15,2013-05-01 16:48:00,
2013-05-01 12:50:00,73.6,31.2,30.27,SSE,153,0.0,9.0,21,0.00,,,0.00,Wunderground v.1.15,2013-05-01 16:50:00,
2013-05-01 12:52:00,73.9,33.7,30.27,SSE,148,0.0,9.0,23,0.00,,,0.00,Wunderground v.1.15,2013-05-01 16:52:00,
2013-05-01 12:55:00,72.8,29.4,30.27,South,182,3.0,9.0,20,0.00,,,0.00,Wunderground v.1.15,2013-05-01 16:55:00,
2013-05-01 12:56:00,72.4,30.2,30.27,South,189,4.0,9.0,21,0.00,,,0.00,Wunderground v.1.15,2013-05-01 16:56:00,
2013-05-01 13:00:00,72.0,29.9,30.27,West,261,4.0,4.0,21,0.00,,,0.00,Wunderground v.1.15,2013-05-01 17:00:00,
2013-05-01 13:02:00,72.0,28.7,30.27,West,259,4.0,4.0,20,0.00,,,0.00,Wunderground v.1.15,2013-05-01 17:02:00,
2013-05-01 13:03:00,72.0,29.9,30.27,WNW,296,3.0,4.0,21,0.00,,,0.00,Wunderground v.1.15,2013-05-01 17:03:00,
2013-05-01 13:04:00,72.0,32.1,30.27,SW,230,2.0,4.0,23,0.00,,,0.00,Wunderground v.1.15,2013-05-01 17:04:00,
2013-05-01 13:09:00,72.1,30.0,30.27,West,268,3.0,6.0,21,0.00,,,0.00,Wunderground v.1.15,2013-05-01 17:09:00,
2013-05-01 13:11:00,71.9,28.6,30.27,West,271,4.0,6.0,20,0.00,,,0.00,Wunderground v.1.15,2013-05-01 17:11:00,
2013-05-01 13:12:00,71.8,34.1,30.27,West,267,4.0,6.0,25,0.00,,,0.00,Wunderground v.1.15,2013-05-01 17:12:00,
2013-05-01 13:14:00,71.9,29.8,30.27,West,267,3.0,6.0,21,0.00,,,0.00,Wunderground v.1.15,2013-05-01 17:14:00,
2013-05-01 13:15:00,71.9,28.6,30.27,West,267,3.0,6.0,20,0.00,,,0.00,Wunderground v.1.15,2013-05-01 17:15:00,
2013-05-01 13:21:00,72.1,30.0,30.26,SSE,163,2.0,7.0,21,0.00,,,0.00,Wunderground v.1.15,2013-05-01 17:21:00,
2013-05-01 13:22:00,72.1,28.8,30.26,SSE,165,3.0,13.0,20,0.00,,,0.00,Wunderground v.1.15,2013-05-01 17:22:00,
2013-05-01 13:23:00,71.9,28.6,30.26,SSE,163,4.0,13.0,20,0.00,,,0.00,Wunderground v.1.15,2013-05-01 17:23:00,
2013-05-01 13:24:00,71.9,28.6,30.26,South,187,4.0,13.0,20,0.00,,,0.00,Wunderground v.1.15,2013-05-01 17:24:00,
2013-05-01 13:26:00,71.7,29.7,30.26,South,184,6.0,13.0,21,0.00,,,0.00,Wunderground v.1.15,2013-05-01 17:26:00,
2013-05-01 13:29:00,71.6,30.7,30.26,WNW,291,7.0,13.0,22,0.00,,,0.00,Wunderground v.1.15,2013-05-01 17:29:00,
2013-05-01 13:32:00,72.0,31.0,30.26,SSE,163,5.0,6.0,22,0.00,,,0.00,Wunderground v.1.15,2013-05-01 17:32:00,
2013-05-01 13:33:00,72.1,30.0,30.26,SSE,163,4.0,6.0,21,0.00,,,0.00,Wunderground v.1.15,2013-05-01 17:33:00,
2013-05-01 13:36:00,73.0,30.7,30.26,NW,306,2.0,6.0,21,0.00,,,0.00,Wunderground v.1.15,2013-05-01 17:36:00,
2013-05-01 13:37:00,73.3,33.2,30.26,NW,304,1.0,6.0,23,0.00,,,0.00,Wunderground v.1.15,2013-05-01 17:37:00,
2013-05-01 13:40:00,73.9,31.5,30.26,ESE,109,0.0,4.0,21,0.00,,,0.00,Wunderground v.1.15,2013-05-01 17:40:00,
2013-05-01 13:44:00,74.4,31.9,30.26,NW,313,1.0,4.0,21,0.00,,,0.00,Wunderground v.1.15,2013-05-01 17:44:00,
2013-05-01 13:46:00,74.1,31.6,30.26,West,273,1.0,4.0,21,0.00,,,0.00,Wunderground v.1.15,2013-05-01 17:46:00,
2013-05-01 13:47:00,74.0,29.1,30.26,SW,217,1.0,4.0,19,0.00,,,0.00,Wunderground v.1.15,2013-05-01 17:47:00,
2013-05-01 13:48:00,73.9,30.3,30.26,SSW,202,2.0,4.0,20,0.00,,,0.00,Wunderground v.1.15,2013-05-01 17:48:00,
2013-05-01 13:51:00,74.3,31.8,30.26,ESE,121,2.0,7.0,21,0.00,,,0.00,Wunderground v.1.15,2013-05-01 17:51:00,
2013-05-01 13:53:00,74.2,32.9,30.26,South,187,3.0,12.0,22,0.00,,,0.00,Wunderground v.1.15,2013-05-01 17:53:00,
2013-05-01 13:54:00,74.0,31.6,30.26,SSW,196,4.0,12.0,21,0.00,,,0.00,Wunderground v.1.15,2013-05-01 17:54:00,
2013-05-01 13:55:00,73.9,31.5,30.26,West,259,4.0,12.0,21,0.00,,,0.00,Wunderground v.1.15,2013-05-01 17:55:00,
2013-05-01 14:00:00,73.0,29.5,30.26,South,175,6.0,7.0,20,0.00,,,0.00,Wunderground v.1.15,2013-05-01 18:00:00,
2013-05-01 14:01:00,73.0,30.7,30.26,SSE,161,6.0,9.0,21,0.00,,,0.00,Wunderground v.1.15,2013-05-01 18:01:00,
2013-05-01 14:02:00,73.0,29.5,30.26,South,176,6.0,9.0,20,0.00,,,0.00,Wunderground v.1.15,2013-05-01 18:02:00,
2013-05-01 14:04:00,73.3,29.8,30.26,SSE,160,5.0,9.0,20,0.00,,,0.00,Wunderground v.1.15,2013-05-01 18:04:00,
2013-05-01 14:05:00,73.4,29.9,30.25,SSE,147,4.0,9.0,20,0.00,,,0.00,Wunderground v.1.15,2013-05-01 18:05:00,
2013-05-01 14:07:00,73.7,31.3,30.25,WSW,249,4.0,9.0,21,0.00,,,0.00,Wunderground v.1.15,2013-05-01 18:07:00,
2013-05-01 14:11:00,73.7,27.5,30.25,ESE,108,5.0,6.0,18,0.00,,,0.00,Wunderground v.1.15,2013-05-01 18:11:00,
2013-05-01 14:12:00,73.6,28.8,30.25,ESE,117,5.0,6.0,19,0.00,,,0.00,Wunderground v.1.15,2013-05-01 18:12:00,
2013-05-01 14:14:00,73.6,30.0,30.25,SSW,198,4.0,6.0,20,0.00,,,0.00,Wunderground v.1.15,2013-05-01 18:14:00,
2013-05-01 14:15:00,73.7,31.3,30.25,SW,216,4.0,6.0,21,0.00,,,0.00,Wunderground v.1.15,2013-05-01 18:15:00,
2013-05-01 14:17:00,73.8,27.6,30.25,SE,136,4.0,6.0,18,0.00,,,0.00,Wunderground v.1.15,2013-05-01 18:17:00,
2013-05-01 14:18:00,73.8,30.2,30.25,SE,126,4.0,6.0,20,0.00,,,0.00,Wunderground v.1.15,2013-05-01 18:18:00,
2013-05-01 14:24:00,75.1,31.3,30.25,SSE,153,2.0,12.0,20,0.00,,,0.00,Wunderground v.1.15,2013-05-01 18:24:00,
2013-05-01 14:25:00,75.1,30.0,30.25,SSE,150,3.0,12.0,19,0.00,,,0.00,Wunderground v.1.15,2013-05-01 18:25:00,
2013-05-01 14:26:00,74.9,31.1,30.25,South,171,4.0,12.0,20,0.00,,,0.00,Wunderground v.1.15,2013-05-01 18:26:00,
2013-05-01 14:27:00,74.7,30.9,30.25,SSE,163,4.0,13.0,20,0.00,,,0.00,Wunderground v.1.15,2013-05-01 18:27:00,
2013-05-01 14:30:00,73.9,30.3,30.25,South,178,5.0,7.0,20,0.00,,,0.00,Wunderground v.1.15,2013-05-01 18:30:00,
2013-05-01 14:31:00,73.9,27.7,30.25,South,180,6.0,7.0,18,0.00,,,0.00,Wunderground v.1.15,2013-05-01 18:31:00,
2013-05-01 14:32:00,73.8,31.4,30.25,WNW,293,6.0,7.0,21,0.00,,,0.00,Wunderground v.1.15,2013-05-01 18:32:00,
2013-05-01 14:35:00,73.5,28.7,30.25,SW,232,6.0,7.0,19,0.00,,,0.00,Wunderground v.1.15,2013-05-01 18:35:00,
2013-05-01 14:36:00,73.5,28.7,30.25,SSE,166,5.0,11.0,19,0.00,,,0.00,Wunderground v.1.15,2013-05-01 18:36:00,
2013-05-01 14:38:00,73.6,28.8,30.25,SSE,161,5.0,11.0,19,0.00,,,0.00,Wunderground v.1.15,2013-05-01 18:38:00,
2013-05-01 14:39:00,74.0,31.6,30.25,SSE,162,5.0,11.0,21,0.00,,,0.00,Wunderground v.1.15,2013-05-01 18:39:00,
2013-05-01 14:42:00,74.6,29.6,30.25,ESE,118,6.0,12.0,19,0.00,,,0.00,Wunderground v.1.15,2013-05-01 18:42:00,
2013-05-01 14:45:00,75.0,29.9,30.25,SE,127,6.0,12.0,19,0.00,,,0.00,Wunderground v.1.15,2013-05-01 18:45:00,
2013-05-01 14:46:00,75.1,28.7,30.25,ESE,102,6.0,12.0,18,0.00,,,0.00,Wunderground v.1.15,2013-05-01 18:46:00,
2013-05-01 14:50:00,75.5,27.6,30.25,SSE,148,4.0,4.0,17,0.00,,,0.00,Wunderground v.1.15,2013-05-01 18:50:00,
2013-05-01 14:52:00,75.9,29.3,30.25,SE,138,2.0,6.0,18,0.00,,,0.00,Wunderground v.1.15,2013-05-01 18:52:00,
2013-05-01 14:55:00,76.6,29.9,30.25,SSE,159,2.0,6.0,18,0.00,,,0.00,Wunderground v.1.15,2013-05-01 18:55:00,
2013-05-01 14:58:00,77.0,30.2,30.25,SSE,165,1.0,6.0,18,0.00,,,0.00,Wunderground v.1.15,2013-05-01 18:58:00,
2013-05-01 14:59:00,76.7,28.6,30.25,South,175,1.0,6.0,17,0.00,,,0.00,Wunderground v.1.15,2013-05-01 18:59:00,
2013-05-01 15:00:00,76.2,28.2,30.25,SW,224,2.0,2.0,17,0.00,,,0.00,Wunderground v.1.15,2013-05-01 19:00:00,
2013-05-01 15:01:00,76.1,32.1,30.25,SW,233,2.0,18.0,20,0.00,,,0.00,Wunderground v.1.15,2013-05-01 19:01:00,
2013-05-01 15:04:00,75.7,31.8,30.24,SE,142,3.0,18.0,20,0.00,,,0.00,Wunderground v.1.15,2013-05-01 19:04:00,
2013-05-01 15:07:00,75.1,28.7,30.24,SSE,159,6.0,18.0,18,0.00,,,0.00,Wunderground v.1.15,2013-05-01 19:07:00,
2013-05-01 15:08:00,74.9,29.8,30.25,SE,124,6.0,18.0,19,0.00,,,0.00,Wunderground v.1.15,2013-05-01 19:08:00,
2013-05-01 15:10:00,74.6,28.3,30.24,SE,133,6.0,6.0,18,0.00,,,0.00,Wunderground v.1.15,2013-05-01 19:10:00,
2013-05-01 15:12:00,74.7,29.7,30.24,SSE,162,6.0,18.0,19,0.00,,,0.00,Wunderground v.1.15,2013-05-01 19:12:00,
2013-05-01 15:14:00,74.8,28.4,30.24,SSE,154,6.0,18.0,18,0.00,,,0.00,Wunderground v.1.15,2013-05-01 19:14:00,
2013-05-01 15:15:00,74.8,28.4,30.24,South,181,6.0,18.0,18,0.00,,,0.00,Wunderground v.1.15,2013-05-01 19:15:00,
2013-05-01 15:16:00,74.7,29.7,30.24,South,190,5.0,18.0,19,0.00,,,0.00,Wunderground v.1.15,2013-05-01 19:16:00,
2013-05-01 15:18:00,74.8,28.4,30.24,West,259,3.0,18.0,18,0.00,,,0.00,Wunderground v.1.15,2013-05-01 19:18:00,
2013-05-01 15:20:00,75.0,29.9,30.24,West,262,3.0,3.0,19,0.00,,,0.00,Wunderground v.1.15,2013-05-01 19:20:00,
2013-05-01 15:22:00,75.4,28.9,30.24,SW,228,2.0,18.0,18,0.00,,,0.00,Wunderground v.1.15,2013-05-01 19:22:00,
2013-05-01 15:23:00,75.6,29.1,30.24,SW,225,2.0,18.0,18,0.00,,,0.00,Wunderground v.1.15,2013-05-01 19:23:00,
2013-05-01 15:24:00,75.7,29.2,30.24,SW,224,2.0,18.0,18,0.00,,,0.00,Wunderground v.1.15,2013-05-01 19:24:00,
2013-05-01 15:26:00,75.9,29.3,30.24,SSW,193,1.0,18.0,18,0.00,,,0.00,Wunderground v.1.15,2013-05-01 19:26:00,
2013-05-01 15:28:00,76.1,29.5,30.24,SSW,194,1.0,18.0,18,0.00,,,0.00,Wunderground v.1.15,2013-05-01 19:28:00,
2013-05-01 15:30:00,76.2,29.6,30.24,South,171,2.0,2.0,18,0.00,,,0.00,Wunderground v.1.15,2013-05-01 19:30:00,
2013-05-01 15:31:00,76.3,28.3,30.24,West,279,2.0,5.0,17,0.00,,,0.00,Wunderground v.1.15,2013-05-01 19:31:00,
2013-05-01 15:34:00,76.2,28.2,30.24,West,265,2.0,18.0,17,0.00,,,0.00,Wunderground v.1.15,2013-05-01 19:34:00,
2013-05-01 15:35:00,76.2,28.2,30.24,WNW,298,2.0,18.0,17,0.00,,,0.00,Wunderground v.1.15,2013-05-01 19:35:00,
2013-05-01 15:36:00,76.2,28.2,30.24,WNW,298,2.0,18.0,17,0.00,,,0.00,Wunderground v.1.15,2013-05-01 19:36:00,
2013-05-01 15:38:00,76.2,28.2,30.24,NW,311,1.0,18.0,17,0.00,,,0.00,Wunderground v.1.15,2013-05-01 19:38:00,
2013-05-01 15:40:00,76.5,31.1,30.24,South,169,1.0,18.0,19,0.00,,,0.00,Wunderground v.1.15,2013-05-01 19:40:00,
2013-05-01 15:42:00,76.6,29.9,30.24,ESE,113,1.0,18.0,18,0.00,,,0.00,Wunderground v.1.15,2013-05-01 19:42:00,
2013-05-01 15:43:00,76.6,28.5,30.24,ESE,111,1.0,18.0,17,0.00,,,0.00,Wunderground v.1.15,2013-05-01 19:43:00,
2013-05-01 15:45:00,76.5,29.8,30.23,ESE,111,1.0,18.0,18,0.00,,,0.00,Wunderground v.1.15,2013-05-01 19:45:00,
2013-05-01 15:46:00,76.5,31.1,30.23,SSE,160,1.0,18.0,19,0.00,,,0.00,Wunderground v.1.15,2013-05-01 19:46:00,
2013-05-01 15:48:00,76.5,29.8,30.24,SW,223,2.0,18.0,18,0.00,,,0.00,Wunderground v.1.15,2013-05-01 19:48:00,
2013-05-01 15:49:00,76.4,29.7,30.23,SSW,194,3.0,18.0,18,0.00,,,0.00,Wunderground v.1.15,2013-05-01 19:49:00,
2013-05-01 15:51:00,76.2,28.2,30.24,WSW,247,3.0,18.0,17,0.00,,,0.00,Wunderground v.1.15,2013-05-01 19:51:00,
2013-05-01 15:56:00,76.3,29.7,30.23,NNW,343,4.0,18.0,18,0.00,,,0.00,Wunderground v.1.15,2013-05-01 19:56:00,
2013-05-01 15:57:00,76.4,29.7,30.23,NNW,343,3.0,18.0,18,0.00,,,0.00,Wunderground v.1.15,2013-05-01 19:57:00,
2013-05-01 15:58:00,76.5,31.1,30.23,NNW,343,3.0,18.0,19,0.00,,,0.00,Wunderground v.1.15,2013-05-01 19:58:00,
2013-05-01 16:01:00,76.5,32.4,30.23,ESE,121,2.0,11.0,20,0.00,,,0.00,Wunderground v.1.15,2013-05-01 20:01:00,
2013-05-01 16:02:00,76.5,31.1,30.23,ESE,116,2.0,11.0,19,0.00,,,0.00,Wunderground v.1.15,2013-05-01 20:02:00,
2013-05-01 16:03:00,76.5,31.1,30.23,SSE,149,2.0,11.0,19,0.00,,,0.00,Wunderground v.1.15,2013-05-01 20:03:00,
2013-05-01 16:06:00,76.2,30.9,30.23,SSE,163,4.0,11.0,19,0.00,,,0.00,Wunderground v.1.15,2013-05-01 20:06:00,
2013-05-01 16:07:00,76.0,30.7,30.23,SSE,150,5.0,11.0,19,0.00,,,0.00,Wunderground v.1.15,2013-05-01 20:07:00,
2013-05-01 16:09:00,75.9,33.1,30.23,ESE,121,6.0,11.0,21,0.00,,,0.00,Wunderground v.1.15,2013-05-01 20:09:00,
2013-05-01 16:10:00,75.9,30.7,30.23,SSE,161,7.0,9.0,19,0.00,,,0.00,Wunderground v.1.15,2013-05-01 20:10:00,
2013-05-01 16:12:00,75.5,31.6,30.23,South,172,7.0,9.0,20,0.00,,,0.00,Wunderground v.1.15,2013-05-01 20:12:00,
2013-05-01 16:14:00,75.2,31.3,30.23,ESE,113,8.0,9.0,20,0.00,,,0.00,Wunderground v.1.15,2013-05-01 20:14:00,
2013-05-01 16:15:00,75.3,30.2,30.23,SE,128,8.0,9.0,19,0.00,,,0.00,Wunderground v.1.15,2013-05-01 20:15:00,
2013-05-01 16:17:00,75.3,28.8,30.23,SSE,148,7.0,9.0,18,0.00,,,0.00,Wunderground v.1.15,2013-05-01 20:17:00,
2013-05-01 16:18:00,75.3,28.8,30.23,SSE,148,6.0,9.0,18,0.00,,,0.00,Wunderground v.1.15,2013-05-01 20:18:00,
2013-05-01 16:22:00,75.5,30.3,30.23,WSW,247,4.0,8.0,19,0.00,,,0.00,Wunderground v.1.15,2013-05-01 20:22:00,
2013-05-01 16:23:00,75.5,29.0,30.23,WNW,302,3.0,8.0,18,0.00,,,0.00,Wunderground v.1.15,2013-05-01 20:23:00,
2013-05-01 16:26:00,75.7,33.0,30.23,SE,127,2.0,8.0,21,0.00,,,0.00,Wunderground v.1.15,2013-05-01 20:26:00,
2013-05-01 16:30:00,75.6,29.1,30.23,South,180,3.0,3.0,18,0.00,,,0.00,Wunderground v.1.15,2013-05-01 20:30:00,
2013-05-01 16:35:00,75.6,31.7,30.23,South,189,4.0,8.0,20,0.00,,,0.00,Wunderground v.1.15,2013-05-01 20:35:00,
2013-05-01 16:36:00,75.5,31.6,30.23,South,186,4.0,10.0,20,0.00,,,0.00,Wunderground v.1.15,2013-05-01 20:36:00,
2013-05-01 16:37:00,75.4,32.7,30.23,SSE,162,5.0,10.0,21,0.00,,,0.00,Wunderground v.1.15,2013-05-01 20:37:00,
2013-05-01 16:40:00,75.1,31.3,30.24,South,171,5.0,8.0,20,0.00,,,0.00,Wunderground v.1.15,2013-05-01 20:40:00,
2013-05-01 16:43:00,74.7,30.9,30.23,SSE,167,7.0,8.0,20,0.00,,,0.00,Wunderground v.1.15,2013-05-01 20:43:00,
2013-05-01 16:44:00,74.6,30.9,30.24,South,181,7.0,8.0,20,0.00,,,0.00,Wunderground v.1.15,2013-05-01 20:44:00,
2013-05-01 16:45:00,74.5,30.8,30.23,South,173,7.0,8.0,20,0.00,,,0.00,Wunderground v.1.15,2013-05-01 20:45:00,
2013-05-01 16:46:00,74.5,32.0,30.23,South,173,6.0,8.0,21,0.00,,,0.00,Wunderground v.1.15,2013-05-01 20:46:00,
2013-05-01 16:50:00,74.4,31.9,30.23,SSE,165,5.0,8.0,21,0.00,,,0.00,Wunderground v.1.15,2013-05-01 20:50:00,
2013-05-01 16:51:00,74.4,31.9,30.23,South,171,6.0,8.0,21,0.00,,,0.00,Wunderground v.1.15,2013-05-01 20:51:00,
2013-05-01 16:53:00,74.4,31.9,30.23,South,178,5.0,8.0,21,0.00,,,0.00,Wunderground v.1.15,2013-05-01 20:53:00,
2013-05-01 16:55:00,74.5,32.0,30.23,SSE,159,5.0,8.0,21,0.00,,,0.00,Wunderground v.1.15,2013-05-01 20:55:00,
2013-05-01 16:58:00,74.8,33.4,30.23,SSE,157,5.0,10.0,22,0.00,,,0.00,Wunderground v.1.15,2013-05-01 20:58:00,
2013-05-01 17:00:00,74.9,32.3,30.24,SE,125,5.0,5.0,21,0.00,,,0.00,Wunderground v.1.15,2013-05-01 21:00:00,
2013-05-01 17:02:00,74.9,32.3,30.24,SSE,152,5.0,13.0,21,0.00,,,0.00,Wunderground v.1.15,2013-05-01 21:02:00,
2013-05-01 17:04:00,75.1,33.6,30.24,South,174,5.0,13.0,22,0.00,,,0.00,Wunderground v.1.15,2013-05-01 21:04:00,
2013-05-01 17:11:00,75.2,31.3,30.24,SSE,154,3.0,13.0,20,0.00,,,0.00,Wunderground v.1.15,2013-05-01 21:11:00,
2013-05-01 17:13:00,75.3,30.2,30.24,SSE,156,2.0,13.0,19,0.00,,,0.00,Wunderground v.1.15,2013-05-01 21:13:00,
2013-05-01 17:14:00,75.3,31.4,30.24,South,178,1.0,13.0,20,0.00,,,0.00,Wunderground v.1.15,2013-05-01 21:14:00,
2013-05-01 17:17:00,75.1,31.3,30.24,South,186,2.0,13.0,20,0.00,,,0.00,Wunderground v.1.15,2013-05-01 21:17:00,
2013-05-01 17:18:00,75.0,32.4,30.24,SSW,194,3.0,13.0,21,0.00,,,0.00,Wunderground v.1.15,2013-05-01 21:18:00,
2013-05-01 17:19:00,74.9,32.3,30.24,SSE,163,3.0,13.0,21,0.00,,,0.00,Wunderground v.1.15,2013-05-01 21:19:00,
2013-05-01 17:23:00,74.5,32.0,30.24,South,175,5.0,13.0,21,0.00,,,0.00,Wunderground v.1.15,2013-05-01 21:23:00,
2013-05-01 17:25:00,74.3,31.8,30.24,SE,138,7.0,13.0,21,0.00,,,0.00,Wunderground v.1.15,2013-05-01 21:25:00,
2013-05-01 17:26:00,74.3,31.8,30.24,SE,138,7.0,13.0,21,0.00,,,0.00,Wunderground v.1.15,2013-05-01 21:26:00,
2013-05-01 17:27:00,74.4,31.9,30.24,SSE,155,6.0,13.0,21,0.00,,,0.00,Wunderground v.1.15,2013-05-01 21:27:00,
2013-05-01 17:31:00,74.4,31.9,30.24,South,177,6.0,13.0,21,0.00,,,0.00,Wunderground v.1.15,2013-05-01 21:31:00,
2013-05-01 17:32:00,74.2,31.7,30.24,SSE,159,7.0,13.0,21,0.00,,,0.00,Wunderground v.1.15,2013-05-01 21:32:00,
2013-05-01 17:35:00,74.1,32.8,30.24,SSE,157,6.0,13.0,22,0.00,,,0.00,Wunderground v.1.15,2013-05-01 21:35:00,
2013-05-01 17:37:00,74.2,34.0,30.24,SSE,152,6.0,13.0,23,0.00,,,0.00,Wunderground v.1.15,2013-05-01 21:37:00,
2013-05-01 17:38:00,74.2,32.9,30.24,SE,146,7.0,13.0,22,0.00,,,0.00,Wunderground v.1.15,2013-05-01 21:38:00,
2013-05-01 17:42:00,74.2,31.7,30.24,SSE,148,6.0,13.0,21,0.00,,,0.00,Wunderground v.1.15,2013-05-01 21:42:00,
2013-05-01 17:43:00,74.2,32.9,30.24,SSE,150,5.0,13.0,22,0.00,,,0.00,Wunderground v.1.15,2013-05-01 21:43:00,
2013-05-01 17:44:00,74.4,33.1,30.24,SE,127,5.0,13.0,22,0.00,,,0.00,Wunderground v.1.15,2013-05-01 21:44:00,
2013-05-01 17:48:00,74.2,31.7,30.24,South,176,6.0,13.0,21,0.00,,,0.00,Wunderground v.1.15,2013-05-01 21:48:00,
2013-05-01 17:49:00,74.0,32.7,30.24,SSE,148,6.0,13.0,22,0.00,,,0.00,Wunderground v.1.15,2013-05-01 21:49:00,
2013-05-01 17:50:00,74.0,32.7,30.24,SSE,153,6.0,13.0,22,0.00,,,0.00,Wunderground v.1.15,2013-05-01 21:50:00,
2013-05-01 17:51:00,73.9,31.5,30.24,SSE,154,7.0,13.0,21,0.00,,,0.00,Wunderground v.1.15,2013-05-01 21:51:00,
2013-05-01 17:52:00,73.8,31.4,30.24,SSE,159,7.0,13.0,21,0.00,,,0.00,Wunderground v.1.15,2013-05-01 21:52:00,
2013-05-01 17:55:00,73.9,31.5,30.24,SSE,163,7.0,13.0,21,0.00,,,0.00,Wunderground v.1.15,2013-05-01 21:55:00,
2013-05-01 17:57:00,73.8,30.2,30.24,South,178,7.0,13.0,20,0.00,,,0.00,Wunderground v.1.15,2013-05-01 21:57:00,
2013-05-01 17:59:00,73.6,31.2,30.24,SSE,161,7.0,13.0,21,0.00,,,0.00,Wunderground v.1.15,2013-05-01 21:59:00,
2013-05-01 18:00:00,73.5,31.1,30.24,SSE,155,7.0,7.0,21,0.00,,,0.00,Wunderground v.1.15,2013-05-01 22:00:00,
2013-05-01 18:03:00,73.4,32.2,30.24,South,169,7.0,12.0,22,0.00,,,0.00,Wunderground v.1.15,2013-05-01 22:03:00,
2013-05-01 18:06:00,73.2,32.1,30.24,SSE,167,7.0,12.0,22,0.00,,,0.00,Wunderground v.1.15,2013-05-01 22:06:00,
2013-05-01 18:09:00,73.3,34.3,30.24,SSE,161,6.0,12.0,24,0.00,,,0.00,Wunderground v.1.15,2013-05-01 22:09:00,
2013-05-01 18:10:00,73.3,33.2,30.24,SSE,153,6.0,6.0,23,0.00,,,0.00,Wunderground v.1.15,2013-05-01 22:10:00,
2013-05-01 18:11:00,73.4,32.2,30.24,SE,132,6.0,12.0,22,0.00,,,0.00,Wunderground v.1.15,2013-05-01 22:11:00,
2013-05-01 18:16:00,73.4,32.2,30.25,SE,138,5.0,12.0,22,0.00,,,0.00,Wunderground v.1.15,2013-05-01 22:16:00,
2013-05-01 18:17:00,73.5,32.3,30.25,SE,144,4.0,12.0,22,0.00,,,0.00,Wunderground v.1.15,2013-05-01 22:17:00,
2013-05-01 18:18:00,73.5,32.3,30.25,SE,142,4.0,12.0,22,0.00,,,0.00,Wunderground v.1.15,2013-05-01 22:18:00,
2013-05-01 18:21:00,73.4,32.2,30.25,SSE,159,5.0,6.0,22,0.00,,,0.00,Wunderground v.1.15,2013-05-01 22:21:00,
2013-05-01 18:24:00,73.3,32.1,30.24,SSE,162,5.0,12.0,22,0.00,,,0.00,Wunderground v.1.15,2013-05-01 22:24:00,
2013-05-01 18:25:00,73.3,32.1,30.25,SSE,161,5.0,12.0,22,0.00,,,0.00,Wunderground v.1.15,2013-05-01 22:25:00,
2013-05-01 18:28:00,73.2,32.1,30.25,SSE,161,6.0,12.0,22,0.00,,,0.00,Wunderground v.1.15,2013-05-01 22:28:00,
2013-05-01 18:29:00,73.2,35.2,30.25,SSE,161,5.0,12.0,25,0.00,,,0.00,Wunderground v.1.15,2013-05-01 22:29:00,
2013-05-01 18:30:00,73.2,34.2,30.25,ESE,121,4.0,12.0,24,0.00,,,0.00,Wunderground v.1.15,2013-05-01 22:30:00,
2013-05-01 18:31:00,73.2,33.2,30.25,SSE,154,4.0,12.0,23,0.00,,,0.00,Wunderground v.1.15,2013-05-01 22:31:00,
2013-05-01 18:35:00,73.1,32.0,30.25,SSE,166,4.0,12.0,22,0.00,,,0.00,Wunderground v.1.15,2013-05-01 22:35:00,
2013-05-01 18:36:00,73.0,31.9,30.25,SSE,164,5.0,12.0,22,0.00,,,0.00,Wunderground v.1.15,2013-05-01 22:36:00,
2013-05-01 18:40:00,72.6,32.7,30.25,SSE,157,7.0,12.0,23,0.00,,,0.00,Wunderground v.1.15,2013-05-01 22:40:00,
2013-05-01 18:41:00,72.5,32.6,30.25,SSE,156,7.0,12.0,23,0.00,,,0.00,Wunderground v.1.15,2013-05-01 22:41:00,
2013-05-01 18:45:00,72.3,32.4,30.25,SSE,150,7.0,12.0,23,0.00,,,0.00,Wunderground v.1.15,2013-05-01 22:45:00,
2013-05-01 18:46:00,72.3,32.4,30.25,SSE,159,8.0,12.0,23,0.00,,,0.00,Wunderground v.1.15,2013-05-01 22:46:00,
2013-05-01 18:47:00,72.3,33.5,30.25,SSE,167,7.0,12.0,24,0.00,,,0.00,Wunderground v.1.15,2013-05-01 22:47:00,
2013-05-01 18:51:00,71.9,33.1,30.25,SE,143,7.0,12.0,24,0.00,,,0.00,Wunderground v.1.15,2013-05-01 22:51:00,
2013-05-01 18:52:00,71.9,33.1,30.25,SE,136,6.0,12.0,24,0.00,,,0.00,Wunderground v.1.15,2013-05-01 22:52:00,
2013-05-01 18:53:00,71.9,33.1,30.25,SE,144,6.0,12.0,24,0.00,,,0.00,Wunderground v.1.15,2013-05-01 22:53:00,
2013-05-01 18:56:00,71.8,33.0,30.25,SSE,165,6.0,12.0,24,0.00,,,0.00,Wunderground v.1.15,2013-05-01 22:56:00,
2013-05-01 18:57:00,71.8,34.1,30.25,SSE,167,6.0,12.0,25,0.00,,,0.00,Wunderground v.1.15,2013-05-01 22:57:00,
2013-05-01 18:58:00,71.7,34.0,30.25,SSE,161,6.0,12.0,25,0.00,,,0.00,Wunderground v.1.15,2013-05-01 22:58:00,
2013-05-01 19:01:00,71.5,32.8,30.25,SSE,168,6.0,13.0,24,0.00,,,0.00,Wunderground v.1.15,2013-05-01 23:01:00,
2013-05-01 19:02:00,71.4,32.7,30.26,SSE,164,7.0,13.0,24,0.00,,,0.00,Wunderground v.1.15,2013-05-01 23:02:00,
2013-05-01 19:04:00,71.3,32.6,30.25,SE,136,7.0,13.0,24,0.00,,,0.00,Wunderground v.1.15,2013-05-01 23:04:00,
2013-05-01 19:08:00,71.3,32.6,30.25,ESE,113,6.0,13.0,24,0.00,,,0.00,Wunderground v.1.15,2013-05-01 23:08:00,
2013-05-01 19:09:00,71.3,32.6,30.26,SE,146,6.0,13.0,24,0.00,,,0.00,Wunderground v.1.15,2013-05-01 23:09:00,
2013-05-01 19:10:00,71.4,33.7,30.26,SSE,152,6.0,6.0,25,0.00,,,0.00,Wunderground v.1.15,2013-05-01 23:10:00,
2013-05-01 19:11:00,71.3,33.6,30.26,SSE,152,5.0,13.0,25,0.00,,,0.00,Wunderground v.1.15,2013-05-01 23:11:00,
2013-05-01 19:12:00,71.3,33.6,30.26,SE,136,5.0,13.0,25,0.00,,,0.00,Wunderground v.1.15,2013-05-01 23:12:00,
2013-05-01 19:17:00,70.9,33.3,30.26,SE,141,4.0,13.0,25,0.00,,,0.00,Wunderground v.1.15,2013-05-01 23:17:00,
2013-05-01 19:18:00,70.9,34.3,30.26,SSE,155,4.0,13.0,26,0.00,,,0.00,Wunderground v.1.15,2013-05-01 23:18:00,
2013-05-01 19:22:00,70.7,34.1,30.26,SSE,147,4.0,13.0,26,0.00,,,0.00,Wunderground v.1.15,2013-05-01 23:22:00,
2013-05-01 19:23:00,70.6,34.0,30.26,SSE,148,4.0,13.0,26,0.00,,,0.00,Wunderground v.1.15,2013-05-01 23:23:00,
2013-05-01 19:24:00,70.5,33.9,30.26,SSE,163,4.0,13.0,26,0.00,,,0.00,Wunderground v.1.15,2013-05-01 23:24:00,
2013-05-01 19:26:00,70.3,33.8,30.26,SSE,165,4.0,13.0,26,0.00,,,0.00,Wunderground v.1.15,2013-05-01 23:26:00,
2013-05-01 19:29:00,70.1,34.5,30.26,SSE,166,4.0,13.0,27,0.00,,,0.00,Wunderground v.1.15,2013-05-01 23:29:00,
2013-05-01 19:31:00,70.0,34.5,30.26,South,169,5.0,13.0,27,0.00,,,0.00,Wunderground v.1.15,2013-05-01 23:31:00,
2013-05-01 19:32:00,69.9,33.4,30.26,SSE,168,5.0,13.0,26,0.00,,,0.00,Wunderground v.1.15,2013-05-01 23:32:00,
2013-05-01 19:35:00,69.8,34.3,30.26,SSE,166,5.0,13.0,27,0.00,,,0.00,Wunderground v.1.15,2013-05-01 23:35:00,
2013-05-01 19:37:00,69.7,34.2,30.26,SSE,162,5.0,13.0,27,0.00,,,0.00,Wunderground v.1.15,2013-05-01 23:37:00,
2013-05-01 19:38:00,69.7,34.2,30.26,SSE,162,5.0,13.0,27,0.00,,,0.00,Wunderground v.1.15,2013-05-01 23:38:00,
2013-05-01 19:39:00,69.6,34.1,30.26,SSE,162,5.0,13.0,27,0.00,,,0.00,Wunderground v.1.15,2013-05-01 23:39:00,
2013-05-01 19:41:00,69.5,34.0,30.26,SSE,162,4.0,13.0,27,0.00,,,0.00,Wunderground v.1.15,2013-05-01 23:41:00,
2013-05-01 19:43:00,69.4,33.9,30.26,ESE,123,4.0,13.0,27,0.00,,,0.00,Wunderground v.1.15,2013-05-01 23:43:00,
2013-05-01 19:44:00,69.3,33.9,30.26,SE,137,4.0,13.0,27,0.00,,,0.00,Wunderground v.1.15,2013-05-01 23:44:00,
2013-05-01 19:46:00,69.2,33.8,30.26,SE,134,3.0,13.0,27,0.00,,,0.00,Wunderground v.1.15,2013-05-01 23:46:00,
2013-05-01 19:49:00,69.1,34.6,30.26,SSE,152,4.0,13.0,28,0.00,,,0.00,Wunderground v.1.15,2013-05-01 23:49:00,
2013-05-01 19:51:00,69.0,35.4,30.26,SSE,150,5.0,13.0,29,0.00,,,0.00,Wunderground v.1.15,2013-05-01 23:51:00,
2013-05-01 19:52:00,68.9,35.3,30.26,SE,136,6.0,15.0,29,0.00,,,0.00,Wunderground v.1.15,2013-05-01 23:52:00,
2013-05-01 19:56:00,68.6,35.9,30.26,SSE,147,8.0,15.0,30,0.00,,,0.00,Wunderground v.1.15,2013-05-01 23:56:00,
2013-05-01 19:57:00,68.5,35.8,30.26,SE,128,8.0,15.0,30,0.00,,,0.00,Wunderground v.1.15,2013-05-01 23:57:00,
2013-05-01 19:58:00,68.5,35.8,30.27,SE,143,8.0,15.0,30,0.00,,,0.00,Wunderground v.1.15,2013-05-01 23:58:00,
2013-05-01 20:00:00,68.3,35.6,30.27,SE,138,8.0,8.0,30,0.00,,,0.00,Wunderground v.1.15,2013-05-02 00:00:00,
2013-05-01 20:03:00,68.1,35.5,30.27,SE,124,7.0,9.0,30,0.00,,,0.00,Wunderground v.1.15,2013-05-02 00:03:00,
2013-05-01 20:05:00,68.0,36.2,30.27,SSE,163,7.0,9.0,31,0.00,,,0.00,Wunderground v.1.15,2013-05-02 00:05:00,
2013-05-01 20:06:00,67.9,36.1,30.27,SE,140,6.0,9.0,31,0.00,,,0.00,Wunderground v.1.15,2013-05-02 00:06:00,
2013-05-01 20:07:00,67.9,36.1,30.27,SE,136,6.0,9.0,31,0.00,,,0.00,Wunderground v.1.15,2013-05-02 00:07:00,
2013-05-01 20:09:00,67.7,36.0,30.27,SSE,155,6.0,11.0,31,0.00,,,0.00,Wunderground v.1.15,2013-05-02 00:09:00,
2013-05-01 20:12:00,67.6,35.9,30.28,SE,138,5.0,9.0,31,0.00,,,0.00,Wunderground v.1.15,2013-05-02 00:12:00,
2013-05-01 20:13:00,67.5,36.6,30.28,SSE,165,5.0,9.0,32,0.00,,,0.00,Wunderground v.1.15,2013-05-02 00:13:00,
2013-05-01 20:15:00,67.4,36.5,30.28,ESE,115,5.0,9.0,32,0.00,,,0.00,Wunderground v.1.15,2013-05-02 00:15:00,
2013-05-01 20:16:00,67.3,36.4,30.28,SE,142,5.0,9.0,32,0.00,,,0.00,Wunderground v.1.15,2013-05-02 00:16:00,
2013-05-01 20:18:00,67.2,36.3,30.28,SE,143,6.0,10.0,32,0.00,,,0.00,Wunderground v.1.15,2013-05-02 00:18:00,
2013-05-01 20:20:00,67.1,36.2,30.28,SE,142,6.0,9.0,32,0.00,,,0.00,Wunderground v.1.15,2013-05-02 00:20:00,
2013-05-01 20:22:00,67.0,36.1,30.28,SE,131,6.0,9.0,32,0.00,,,0.00,Wunderground v.1.15,2013-05-02 00:22:00,
2013-05-01 20:23:00,66.9,36.1,30.28,SSE,159,6.0,9.0,32,0.00,,,0.00,Wunderground v.1.15,2013-05-02 00:23:00,
2013-05-01 20:26:00,66.6,35.8,30.28,SSE,155,6.0,9.0,32,0.00,,,0.00,Wunderground v.1.15,2013-05-02 00:26:00,
2013-05-01 20:28:00,66.5,35.7,30.28,SE,143,6.0,9.0,32,0.00,,,0.00,Wunderground v.1.15,2013-05-02 00:28:00,
2013-05-01 20:30:00,66.5,35.7,30.28,SE,125,6.0,9.0,32,0.00,,,0.00,Wunderground v.1.15,2013-05-02 00:30:00,
2013-05-01 20:34:00,66.3,35.5,30.28,SE,132,7.0,9.0,32,0.00,,,0.00,Wunderground v.1.15,2013-05-02 00:34:00,
2013-05-01 20:35:00,66.2,35.4,30.28,SSE,156,7.0,9.0,32,0.00,,,0.00,Wunderground v.1.15,2013-05-02 00:35:00,
2013-05-01 20:36:00,66.1,36.1,30.28,SE,124,7.0,13.0,33,0.00,,,0.00,Wunderground v.1.15,2013-05-02 00:36:00,
2013-05-01 20:38:00,66.1,35.4,30.28,South,169,8.0,13.0,32,0.00,,,0.00,Wunderground v.1.15,2013-05-02 00:38:00,
2013-05-01 20:40:00,65.9,36.0,30.28,SSE,161,7.0,7.0,33,0.00,,,0.00,Wunderground v.1.15,2013-05-02 00:40:00,
2013-05-01 20:41:00,65.9,36.0,30.28,SSE,163,6.0,9.0,33,0.00,,,0.00,Wunderground v.1.15,2013-05-02 00:41:00,
2013-05-01 20:42:00,65.8,35.9,30.28,SE,130,6.0,9.0,33,0.00,,,0.00,Wunderground v.1.15,2013-05-02 00:42:00,
2013-05-01 20:43:00,65.8,35.9,30.28,SE,138,6.0,9.0,33,0.00,,,0.00,Wunderground v.1.15,2013-05-02 00:43:00,
2013-05-01 20:45:00,65.7,35.8,30.29,SSE,164,5.0,9.0,33,0.00,,,0.00,Wunderground v.1.15,2013-05-02 00:45:00,
2013-05-01 20:47:00,65.4,35.5,30.29,South,187,5.0,9.0,33,0.00,,,0.00,Wunderground v.1.15,2013-05-02 00:47:00,
2013-05-01 20:48:00,65.3,35.4,30.29,SSE,168,5.0,9.0,33,0.00,,,0.00,Wunderground v.1.15,2013-05-02 00:48:00,
2013-05-01 20:49:00,65.2,35.4,30.29,SSE,168,5.0,9.0,33,0.00,,,0.00,Wunderground v.1.15,2013-05-02 00:49:00,
2013-05-01 20:51:00,65.2,35.4,30.29,WSW,245,6.0,6.0,33,0.00,,,0.00,Wunderground v.1.15,2013-05-02 00:51:00,
2013-05-01 20:52:00,65.1,36.0,30.29,SSE,159,5.0,9.0,34,0.00,,,0.00,Wunderground v.1.15,2013-05-02 00:52:00,
2013-05-01 20:54:00,64.9,35.8,30.29,SSW,209,4.0,9.0,34,0.00,,,0.00,Wunderground v.1.15,2013-05-02 00:54:00,
2013-05-01 20:56:00,64.8,35.8,30.29,SSW,211,5.0,9.0,34,0.00,,,0.00,Wunderground v.1.15,2013-05-02 00:56:00,
2013-05-01 21:02:00,64.5,36.2,30.30,SSW,206,4.0,13.0,35,0.00,,,0.00,Wunderground v.1.15,2013-05-02 01:02:00,
2013-05-01 21:03:00,64.5,36.2,30.30,SSW,194,5.0,13.0,35,0.00,,,0.00,Wunderground v.1.15,2013-05-02 01:03:00,
2013-05-01 21:04:00,64.4,36.1,30.30,SSW,192,5.0,13.0,35,0.00,,,0.00,Wunderground v.1.15,2013-05-02 01:04:00,
2013-05-01 21:06:00,64.4,35.4,30.30,SSW,210,6.0,13.0,34,0.00,,,0.00,Wunderground v.1.15,2013-05-02 01:06:00,
2013-05-01 21:08:00,64.4,35.4,30.31,South,186,6.0,13.0,34,0.00,,,0.00,Wunderground v.1.15,2013-05-02 01:08:00,
2013-05-01 21:10:00,64.4,35.4,30.31,SSE,159,6.0,13.0,34,0.00,,,0.00,Wunderground v.1.15,2013-05-02 01:10:00,
2013-05-01 21:12:00,64.4,35.4,30.31,SSE,163,6.0,13.0,34,0.00,,,0.00,Wunderground v.1.15,2013-05-02 01:12:00,
2013-05-01 21:13:00,64.3,35.3,30.31,South,189,6.0,13.0,34,0.00,,,0.00,Wunderground v.1.15,2013-05-02 01:13:00,
2013-05-01 21:14:00,64.3,35.3,30.31,South,188,6.0,13.0,34,0.00,,,0.00,Wunderground v.1.15,2013-05-02 01:14:00,
2013-05-01 21:16:00,64.3,35.3,30.31,South,180,6.0,13.0,34,0.00,,,0.00,Wunderground v.1.15,2013-05-02 01:16:00,
2013-05-01 21:18:00,64.2,36.0,30.31,SSW,202,5.0,13.0,35,0.00,,,0.00,Wunderground v.1.15,2013-05-02 01:18:00,
2013-05-01 21:19:00,64.1,35.9,30.31,SSW,209,5.0,13.0,35,0.00,,,0.00,Wunderground v.1.15,2013-05-02 01:19:00,
2013-05-01 21:24:00,64.0,35.0,30.31,South,185,4.0,13.0,34,0.00,,,0.00,Wunderground v.1.15,2013-05-02 01:24:00,
2013-05-01 21:25:00,63.9,35.7,30.31,SSE,167,4.0,13.0,35,0.00,,,0.00,Wunderground v.1.15,2013-05-02 01:25:00,
2013-05-01 21:27:00,63.8,35.6,30.31,South,188,4.0,13.0,35,0.00,,,0.00,Wunderground v.1.15,2013-05-02 01:27:00,
2013-05-01 21:30:00,63.7,35.5,30.31,South,191,5.0,5.0,35,0.00,,,0.00,Wunderground v.1.15,2013-05-02 01:30:00,
2013-05-01 21:31:00,63.7,35.5,30.32,SSW,194,5.0,13.0,35,0.00,,,0.00,Wunderground v.1.15,2013-05-02 01:31:00,
2013-05-01 21:32:00,63.7,35.5,30.32,SSW,201,4.0,13.0,35,0.00,,,0.00,Wunderground v.1.15,2013-05-02 01:32:00,
2013-05-01 21:37:00,63.5,36.7,30.32,SSW,194,3.0,13.0,37,0.00,,,0.00,Wunderground v.1.15,2013-05-02 01:37:00,
2013-05-01 21:38:00,63.5,36.0,30.32,SSW,196,2.0,13.0,36,0.00,,,0.00,Wunderground v.1.15,2013-05-02 01:38:00,
2013-05-01 21:39:00,63.5,38.1,30.32,SSW,207,2.0,13.0,39,0.00,,,0.00,Wunderground v.1.15,2013-05-02 01:39:00,
2013-05-01 21:40:00,63.5,38.7,30.32,SSW,207,2.0,2.0,40,0.00,,,0.00,Wunderground v.1.15,2013-05-02 01:40:00,
2013-05-01 21:41:00,63.4,38.6,30.32,SSW,207,2.0,13.0,40,0.00,,,0.00,Wunderground v.1.15,2013-05-02 01:41:00,
2013-05-01 21:44:00,63.3,41.0,30.32,South,190,2.0,13.0,44,0.00,,,0.00,Wunderground v.1.15,2013-05-02 01:44:00,
2013-05-01 21:45:00,63.2,40.9,30.32,SSW,207,2.0,13.0,44,0.00,,,0.00,Wunderground v.1.15,2013-05-02 01:45:00,
2013-05-01 21:48:00,63.0,42.4,30.32,SSW,199,3.0,13.0,47,0.00,,,0.00,Wunderground v.1.15,2013-05-02 01:48:00,
2013-05-01 21:49:00,62.9,42.9,30.32,SW,220,3.0,13.0,48,0.00,,,0.00,Wunderground v.1.15,2013-05-02 01:49:00,
2013-05-01 21:51:00,62.7,42.7,30.32,South,175,3.0,13.0,48,0.00,,,0.00,Wunderground v.1.15,2013-05-02 01:51:00,
2013-05-01 21:53:00,62.6,43.2,30.32,SSW,203,4.0,13.0,49,0.00,,,0.00,Wunderground v.1.15,2013-05-02 01:53:00,
2013-05-01 21:54:00,62.5,43.6,30.32,South,188,5.0,13.0,50,0.00,,,0.00,Wunderground v.1.15,2013-05-02 01:54:00,
2013-05-01 21:56:00,62.4,43.5,30.33,SSW,196,6.0,13.0,50,0.00,,,0.00,Wunderground v.1.15,2013-05-02 01:56:00,
2013-05-01 21:57:00,62.4,44.0,30.33,SSW,194,6.0,13.0,51,0.00,,,0.00,Wunderground v.1.15,2013-05-02 01:57:00,
2013-05-01 21:59:00,62.3,43.9,30.33,South,175,6.0,13.0,51,0.00,,,0.00,Wunderground v.1.15,2013-05-02 01:59:00,
2013-05-01 22:03:00,62.1,43.7,30.33,South,182,6.0,7.0,51,0.00,,,0.00,Wunderground v.1.15,2013-05-02 02:03:00,
2013-05-01 22:04:00,62.0,43.7,30.32,SSW,205,5.0,7.0,51,0.00,,,0.00,Wunderground v.1.15,2013-05-02 02:04:00,
2013-05-01 22:05:00,62.0,44.2,30.33,SSW,200,5.0,7.0,52,0.00,,,0.00,Wunderground v.1.15,2013-05-02 02:05:00,
2013-05-01 22:07:00,61.9,44.1,30.32,SSW,200,5.0,7.0,52,0.00,,,0.00,Wunderground v.1.15,2013-05-02 02:07:00,
2013-05-01 22:09:00,61.8,44.0,30.32,SSW,206,5.0,7.0,52,0.00,,,0.00,Wunderground v.1.15,2013-05-02 02:09:00,
2013-05-01 22:11:00,61.7,43.9,30.32,SSW,210,4.0,7.0,52,0.00,,,0.00,Wunderground v.1.15,2013-05-02 02:11:00,
2013-05-01 22:12:00,61.7,43.9,30.32,SSW,211,3.0,7.0,52,0.00,,,0.00,Wunderground v.1.15,2013-05-02 02:12:00,
2013-05-01 22:14:00,61.6,43.8,30.32,South,191,3.0,7.0,52,0.00,,,0.00,Wunderground v.1.15,2013-05-02 02:14:00,
2013-05-01 22:15:00,61.5,44.2,30.32,South,191,3.0,7.0,53,0.00,,,0.00,Wunderground v.1.15,2013-05-02 02:15:00,
2013-05-01 22:17:00,61.4,44.1,30.32,SSW,209,2.0,7.0,53,0.00,,,0.00,Wunderground v.1.15,2013-05-02 02:17:00,
2013-05-01 22:18:00,61.4,44.1,30.32,SSW,208,2.0,7.0,53,0.00,,,0.00,Wunderground v.1.15,2013-05-02 02:18:00,
2013-05-01 22:19:00,61.3,44.0,30.32,SSW,208,1.0,7.0,53,0.00,,,0.00,Wunderground v.1.15,2013-05-02 02:19:00,
2013-05-01 22:20:00,61.3,44.0,30.32,SSW,208,1.0,1.0,53,0.00,,,0.00,Wunderground v.1.15,2013-05-02 02:20:00,
2013-05-01 22:24:00,61.0,44.2,30.32,SSW,213,2.0,7.0,54,0.00,,,0.00,Wunderground v.1.15,2013-05-02 02:24:00,
2013-05-01 22:25:00,61.0,44.2,30.32,SSW,198,2.0,7.0,54,0.00,,,0.00,Wunderground v.1.15,2013-05-02 02:25:00,
2013-05-01 22:26:00,60.9,44.1,30.32,SW,217,2.0,7.0,54,0.00,,,0.00,Wunderground v.1.15,2013-05-02 02:26:00,
2013-05-01 22:27:00,60.8,44.0,30.32,SW,222,2.0,7.0,54,0.00,,,0.00,Wunderground v.1.15,2013-05-02 02:27:00,
2013-05-01 22:29:00,60.7,44.4,30.32,SSW,208,2.0,7.0,55,0.00,,,0.00,Wunderground v.1.15,2013-05-02 02:29:00,
2013-05-01 22:34:00,60.3,44.5,30.32,SSE,162,4.0,9.0,56,0.00,,,0.00,Wunderground v.1.15,2013-05-02 02:34:00,
2013-05-01 22:36:00,60.1,44.3,30.32,SSE,166,5.0,9.0,56,0.00,,,0.00,Wunderground v.1.15,2013-05-02 02:36:00,
2013-05-01 22:38:00,60.0,44.3,30.32,SSE,166,5.0,9.0,56,0.00,,,0.00,Wunderground v.1.15,2013-05-02 02:38:00,
2013-05-01 22:39:00,59.9,44.2,30.32,SW,231,6.0,9.0,56,0.00,,,0.00,Wunderground v.1.15,2013-05-02 02:39:00,
2013-05-01 22:42:00,59.7,44.4,30.32,SSW,209,6.0,7.0,57,0.00,,,0.00,Wunderground v.1.15,2013-05-02 02:42:00,
2013-05-01 22:44:00,59.6,44.3,30.32,WSW,240,6.0,7.0,57,0.00,,,0.00,Wunderground v.1.15,2013-05-02 02:44:00,
2013-05-01 22:45:00,59.6,44.3,30.32,South,178,6.0,7.0,57,0.00,,,0.00,Wunderground v.1.15,2013-05-02 02:45:00,
2013-05-01 22:46:00,59.5,44.2,30.32,South,185,6.0,7.0,57,0.00,,,0.00,Wunderground v.1.15,2013-05-02 02:46:00,
2013-05-01 22:47:00,59.5,44.2,30.32,SSW,196,6.0,7.0,57,0.00,,,0.00,Wunderground v.1.15,2013-05-02 02:47:00,
2013-05-01 22:50:00,59.3,44.5,30.32,SW,216,5.0,5.0,58,0.00,,,0.00,Wunderground v.1.15,2013-05-02 02:50:00,
2013-05-01 22:52:00,59.2,44.4,30.32,South,172,4.0,7.0,58,0.00,,,0.00,Wunderground v.1.15,2013-05-02 02:52:00,
2013-05-01 22:55:00,59.0,44.2,30.32,SW,215,5.0,11.0,58,0.00,,,0.00,Wunderground v.1.15,2013-05-02 02:55:00,
2013-05-01 22:56:00,59.0,44.2,30.32,SW,222,5.0,11.0,58,0.00,,,0.00,Wunderground v.1.15,2013-05-02 02:56:00,
2013-05-01 22:58:00,58.9,44.1,30.32,SSW,207,5.0,11.0,58,0.00,,,0.00,Wunderground v.1.15,2013-05-02 02:58:00,
2013-05-01 23:00:00,58.8,44.5,30.32,West,261,4.0,11.0,59,0.00,,,0.00,Wunderground v.1.15,2013-05-02 03:00:00,
2013-05-01 23:04:00,58.5,44.2,30.32,SW,215,4.0,11.0,59,0.00,,,0.00,Wunderground v.1.15,2013-05-02 03:04:00,
2013-05-01 23:05:00,58.5,44.2,30.32,SSW,204,3.0,11.0,59,0.00,,,0.00,Wunderground v.1.15,2013-05-02 03:05:00,
2013-05-01 23:06:00,58.4,44.1,30.32,South,185,3.0,11.0,59,0.00,,,0.00,Wunderground v.1.15,2013-05-02 03:06:00,
2013-05-01 23:09:00,58.3,44.0,30.32,SSW,207,4.0,11.0,59,0.00,,,0.00,Wunderground v.1.15,2013-05-02 03:09:00,
2013-05-01 23:11:00,58.2,44.4,30.32,South,189,4.0,11.0,60,0.00,,,0.00,Wunderground v.1.15,2013-05-02 03:11:00,
2013-05-01 23:14:00,58.1,44.3,30.32,South,184,5.0,11.0,60,0.00,,,0.00,Wunderground v.1.15,2013-05-02 03:14:00,
2013-05-01 23:16:00,58.0,44.2,30.32,SSE,165,6.0,11.0,60,0.00,,,0.00,Wunderground v.1.15,2013-05-02 03:16:00,
2013-05-01 23:17:00,57.9,44.1,30.32,SSW,206,6.0,11.0,60,0.00,,,0.00,Wunderground v.1.15,2013-05-02 03:17:00,
2013-05-01 23:22:00,57.7,43.9,30.32,SSE,161,7.0,12.0,60,0.00,,,0.00,Wunderground v.1.15,2013-05-02 03:22:00,
2013-05-01 23:23:00,57.7,43.9,30.32,South,182,7.0,12.0,60,0.00,,,0.00,Wunderground v.1.15,2013-05-02 03:23:00,
2013-05-01 23:24:00,57.6,44.2,30.32,South,175,7.0,12.0,61,0.00,,,0.00,Wunderground v.1.15,2013-05-02 03:24:00,
2013-05-01 23:26:00,57.6,44.2,30.32,South,180,7.0,12.0,61,0.00,,,0.00,Wunderground v.1.15,2013-05-02 03:26:00,
2013-05-01 23:29:00,57.5,44.1,30.32,SSE,155,7.0,12.0,61,0.00,,,0.00,Wunderground v.1.15,2013-05-02 03:29:00,
2013-05-01 23:31:00,57.4,44.1,30.32,SSW,206,6.0,11.0,61,0.00,,,0.00,Wunderground v.1.15,2013-05-02 03:31:00,
2013-05-01 23:32:00,57.3,44.0,30.32,SSW,212,7.0,11.0,61,0.00,,,0.00,Wunderground v.1.15,2013-05-02 03:32:00,
2013-05-01 23:34:00,57.3,44.0,30.32,South,183,6.0,11.0,61,0.00,,,0.00,Wunderground v.1.15,2013-05-02 03:34:00,
2013-05-01 23:35:00,57.2,43.9,30.32,South,181,6.0,11.0,61,0.00,,,0.00,Wunderground v.1.15,2013-05-02 03:35:00,
2013-05-01 23:37:00,57.1,43.8,30.31,South,187,6.0,11.0,61,0.00,,,0.00,Wunderground v.1.15,2013-05-02 03:37:00,
2013-05-01 23:39:00,57.1,43.8,30.31,SSW,209,6.0,11.0,61,0.00,,,0.00,Wunderground v.1.15,2013-05-02 03:39:00,
2013-05-01 23:40:00,57.0,43.7,30.31,SSW,197,6.0,6.0,61,0.00,,,0.00,Wunderground v.1.15,2013-05-02 03:40:00,
2013-05-01 23:41:00,57.0,43.7,30.31,SSE,159,6.0,11.0,61,0.00,,,0.00,Wunderground v.1.15,2013-05-02 03:41:00,
2013-05-01 23:43:00,56.9,43.6,30.31,SSW,199,6.0,11.0,61,0.00,,,0.00,Wunderground v.1.15,2013-05-02 03:43:00,
2013-05-01 23:44:00,56.9,43.6,30.31,SSW,202,6.0,11.0,61,0.00,,,0.00,Wunderground v.1.15,2013-05-02 03:44:00,
2013-05-01 23:46:00,56.9,43.6,30.31,SSW,195,6.0,11.0,61,0.00,,,0.00,Wunderground v.1.15,2013-05-02 03:46:00,
2013-05-01 23:48:00,56.8,43.5,30.31,SW,225,5.0,11.0,61,0.00,,,0.00,Wunderground v.1.15,2013-05-02 03:48:00,
2013-05-01 23:51:00,56.7,43.4,30.31,South,179,4.0,11.0,61,0.00,,,0.00,Wunderground v.1.15,2013-05-02 03:51:00,
2013-05-01 23:53:00,56.7,43.4,30.31,SW,219,4.0,11.0,61,0.00,,,0.00,Wunderground v.1.15,2013-05-02 03:53:00,
2013-05-01 23:55:00,56.6,43.3,30.31,South,185,3.0,11.0,61,0.00,,,0.00,Wunderground v.1.15,2013-05-02 03:55:00,
2013-05-01 23:57:00,56.6,43.3,30.31,SSW,205,3.0,11.0,61,0.00,,,0.00,Wunderground v.1.15,2013-05-02 03:57:00,